ECMWFFLT2_850_dewp_024.txt.gz
Dewpoint
4 4 5 5 6 7 7 7 8 8 7 7 7 7 7 7 7 7 7 7 7 7 7 7 7 7 6 6 5 4 3 2 2 4 5 6 6 6 7 7 7 7 7 6 6 5 5 4 4 -1 -21 -22
2 2 2 3 4 5 6 6 7 7 7 7 7 7 7 7 7 7 7 6 6 6 6 7 7 7 6 6 6 5 5 3 2 2 4 5 6 6 6 7 7 7 7 6 6 6 5 4 5 1 -15 -36
0 0 0 1 2 3 4 4 5 6 6 6 6 6 7 7 7 6 6 6 6 6 6 6 6 6 6 7 6 6 6 5 3 2 2 4 5 6 6 6 7 7 7 7 6 5 5 4 4 4 -5 -32
-3 -2 -2 -1 0 -0 0 1 1 3 4 4 5 6 6 6 6 6 6 6 6 6 7 6 6 6 6 7 6 6 6 6 5 2 1 2 4 5 6 6 6 7 7 6 6 5 5 5 3 4 0 -21
-8 -6 -6 -6 -6 -5 -4 -4 -4 -3 -0 2 3 4 4 5 5 6 6 5 6 6 6 7 6 6 6 6 6 6 6 6 6 4 1 1 3 4 5 6 6 7 7 6 6 6 5 5 3 3 2 -9
-14 -13 -12 -12 -12 -10 -10 -10 -9 -9 -8 -6 -4 -3 -1 2 3 4 5 5 4 5 5 6 6 6 6 6 6 6 6 6 6 5 3 1 1 3 4 5 6 6 6 6 6 6 6 5 4 3 3 -0
-17 -17 -16 -16 -16 -15 -15 -14 -13 -13 -14 -13 -12 -11 -10 -7 -4 -1 2 3 4 4 4 5 6 6 6 6 6 6 6 6 6 6 5 3 1 1 3 5 5 6 6 6 6 6 6 5 4 3 2 2
-18 -18 -18 -18 -18 -18 -18 -18 -17 -17 -16 -16 -17 -16 -15 -15 -14 -12 -8 -3 0 2 3 3 4 5 5 6 6 6 6 6 6 5 5 4 2 1 1 3 4 5 6 6 6 6 6 5 4 4 2 2
-18 -19 -19 -19 -19 -19 -20 -20 -19 -20 -19 -19 -19 -19 -18 -18 -19 -19 -18 -14 -9 -5 -1 0 1 2 3 4 5 5 5 6 6 5 5 5 4 2 0 2 3 4 5 5 6 6 6 6 4 4 3 2
-18 -19 -18 -19 -19 -19 -20 -20 -20 -20 -21 -20 -20 -21 -21 -21 -20 -20 -20 -21 -20 -15 -9 -6 -4 -2 0 2 3 4 5 5 6 5 5 5 4 3 2 1 2 3 4 5 5 6 6 6 5 4 4 3
-18 -18 -18 -18 -18 -19 -19 -19 -20 -20 -20 -21 -21 -21 -21 -22 -22 -22 -22 -22 -22 -22 -18 -13 -11 -9 -6 -4 -1 1 3 4 5 5 4 5 5 4 4 2 1 2 3 4 4 5 6 6 5 4 4 3
-18 -18 -18 -18 -18 -18 -18 -19 -19 -19 -20 -20 -21 -21 -22 -22 -22 -22 -23 -23 -23 -24 -24 -21 -18 -15 -14 -11 -8 -6 -3 -0 3 5 4 5 5 4 4 3 2 1 2 3 4 4 5 6 5 5 4 4
-20 -20 -20 -20 -20 -20 -19 -19 -19 -19 -20 -20 -21 -21 -22 -22 -23 -23 -23 -23 -24 -23 -24 -24 -24 -22 -20 -18 -15 -12 -11 -9 -4 2 4 5 4 4 4 4 3 2 1 1 3 4 4 5 5 5 5 4
-22 -22 -23 -22 -22 -22 -22 -22 -22 -22 -22 -22 -22 -22 -23 -23 -23 -24 -24 -24 -24 -24 -24 -24 -25 -25 -25 -24 -22 -18 -16 -15 -13 -7 0 4 4 4 4 4 4 3 2 1 1 2 3 4 4 5 5 5
-25 -24 -24 -24 -24 -23 -23 -23 -23 -24 -24 -24 -24 -24 -24 -24 -24 -24 -25 -25 -25 -26 -25 -25 -25 -25 -26 -24 -26 -25 -22 -19 -18 -18 -9 -0 3 4 4 4 4 4 3 2 1 1 2 3 4 4 5 5
-25 -25 -24 -23 -23 -22 -22 -22 -22 -23 -24 -25 -24 -25 -25 -24 -24 -24 -25 -25 -24 -25 -24 -25 -25 -25 -26 -25 -26 -25 -25 -24 -20 -22 -21 -9 0 3 4 4 4 4 4 3 3 2 1 2 3 4 4 4
-25 -25 -23 -22 -21 -21 -21 -21 -21 -22 -23 -24 -24 -23 -23 -22 -23 -23 -23 -23 -23 -23 -22 -22 -23 -24 -25 -25 -26 -26 -24 -25 -25 -23 -25 -18 -5 1 2 4 4 4 4 3 3 3 2 1 2 3 4 4
-25 -25 -23 -20 -19 -19 -19 -19 -19 -20 -21 -22 -23 -22 -21 -20 -20 -20 -20 -21 -20 -20 -18 -17 -18 -20 -21 -23 -24 -25 -25 -24 -24 -24 -24 -24 -12 -4 0 2 4 4 3 3 3 3 3 2 2 2 3 4
-23 -23 -21 -18 -17 -17 -17 -17 -18 -19 -19 -20 -22 -22 -20 -18 -17 -17 -18 -17 -17 -17 -15 -14 -14 -16 -17 -19 -21 -21 -23 -22 -23 -23 -21 -21 -19 -10 -4 -1 2 3 3 3 3 3 3 2 2 2 2 3
-22 -22 -19 -16 -15 -15 -15 -16 -16 -17 -18 -19 -20 -21 -21 -19 -17 -16 -16 -15 -14 -13 -13 -12 -12 -14 -15 -15 -17 -18 -19 -19 -19 -21 -20 -17 -16 -13 -7 -3 -0 2 3 3 3 3 3 3 3 3 2 2
-21 -21 -18 -15 -14 -14 -15 -15 -15 -15 -16 -17 -18 -19 -20 -20 -19 -16 -14 -13 -13 -12 -11 -12 -12 -13 -13 -13 -14 -15 -16 -17 -17 -17 -18 -16 -14 -11 -7 -3 -0 1 2 3 3 3 3 3 3 3 3 2
-19 -21 -20 -17 -15 -14 -14 -14 -14 -14 -15 -15 -16 -18 -19 -19 -20 -19 -15 -13 -12 -11 -11 -11 -12 -12 -12 -12 -12 -13 -14 -16 -16 -16 -16 -16 -15 -12 -8 -4 -1 1 2 2 3 2 3 3 3 3 3 3
-18 -19 -20 -19 -17 -14 -14 -13 -13 -14 -14 -15 -15 -17 -18 -18 -19 -20 -19 -16 -14 -13 -12 -11 -11 -11 -12 -12 -12 -12 -12 -14 -15 -16 -15 -15 -15 -14 -10 -7 -3 -1 1 2 2 2 2 2 3 3 3 3
-17 -17 -18 -18 -16 -12 -11 -11 -12 -13 -14 -15 -16 -17 -18 -18 -19 -19 -20 -19 -18 -16 -14 -13 -12 -11 -11 -11 -12 -12 -12 -13 -14 -14 -15 -14 -14 -15 -13 -9 -6 -3 -1 -0 1 2 1 1 2 3 3 3
-18 -16 -16 -16 -14 -11 -10 -10 -10 -11 -12 -14 -15 -16 -17 -17 -18 -18 -19 -19 -19 -18 -17 -15 -13 -11 -11 -11 -12 -12 -13 -13 -13 -13 -13 -14 -13 -14 -14 -11 -8 -5 -4 -2 -0 0 0 1 1 2 2 2
-23 -20 -19 -17 -15 -14 -12 -11 -10 -10 -11 -12 -14 -15 -16 -16 -17 -18 -19 -18 -16 -15 -15 -14 -12 -12 -11 -11 -11 -12 -13 -12 -12 -12 -12 -12 -12 -12 -13 -13 -10 -7 -5 -4 -2 -1 -0 -0 0 1 1 2
-28 -27 -25 -22 -20 -18 -16 -14 -12 -10 -10 -11 -13 -14 -15 -16 -17 -18 -19 -18 -15 -13 -12 -12 -12 -11 -11 -11 -11 -11 -12 -12 -12 -12 -11 -10 -10 -10 -11 -12 -12 -8 -6 -5 -4 -2 -1 -1 -1 -0 0 1
-27 -27 -25 -22 -20 -19 -18 -16 -14 -12 -10 -11 -12 -13 -14 -15 -17 -19 -19 -16 -15 -14 -12 -12 -11 -11 -11 -11 -11 -11 -11 -11 -12 -12 -10 -10 -9 -9 -10 -11 -12 -11 -8 -6 -5 -3 -2 -2 -1 -1 -1 0
-25 -23 -20 -19 -20 -20 -19 -18 -16 -14 -13 -12 -11 -11 -13 -15 -17 -19 -16 -12 -12 -13 -13 -13 -12 -11 -11 -11 -10 -10 -11 -11 -11 -11 -11 -10 -9 -9 -9 -10 -11 -12 -10 -8 -6 -4 -2 -2 -1 -1 -1 -1
-24 -22 -21 -21 -22 -22 -21 -20 -18 -16 -15 -14 -12 -12 -13 -15 -17 -17 -14 -11 -11 -11 -11 -12 -12 -11 -10 -10 -9 -9 -11 -11 -11 -11 -11 -10 -10 -9 -9 -9 -10 -11 -12 -10 -9 -7 -4 -3 -2 -2 -2 -1
-23 -23 -22 -23 -22 -20 -20 -21 -20 -18 -17 -16 -15 -15 -15 -16 -17 -16 -14 -12 -11 -11 -10 -11 -12 -11 -10 -9 -9 -9 -9 -10 -11 -10 -10 -10 -10 -9 -9 -9 -8 -9 -11 -11 -11 -10 -7 -4 -3 -2 -2 -2

ECMWFFLT2_850_dewp_027.txt.gz
Dewpoint
0 1 1 2 3 5 5 5 5 5 5 6 6 6 6 7 7 7 7 7 7 7 7 7 7 7 7 7 7 6 6 6 6 6 6 6 5 4 5 6 7 7 7 7 7 7 5 5 5 4 3 -5
-3 -3 -2 -2 -0 1 2 2 2 3 4 5 6 5 5 6 6 7 7 7 7 6 7 7 7 7 7 7 7 6 6 6 6 6 5 6 5 3 4 5 6 7 7 7 7 7 6 5 5 4 4 -4
-7 -8 -7 -6 -4 -3 -2 -2 -2 -1 1 2 4 5 4 4 5 6 6 6 6 6 6 7 7 7 7 7 7 6 6 6 6 5 5 5 6 4 4 4 5 7 7 7 7 7 6 5 5 4 4 1
-11 -12 -12 -10 -8 -8 -7 -6 -6 -6 -4 -2 1 2 2 3 3 3 4 5 5 6 6 6 6 7 6 7 7 7 6 6 6 6 5 5 6 5 5 4 4 6 6 7 7 7 6 6 5 5 4 3
-14 -14 -14 -13 -13 -12 -12 -11 -10 -10 -8 -8 -6 -4 -2 -1 -1 -1 0 2 2 3 4 4 5 6 6 6 6 7 6 6 6 6 6 5 5 6 5 4 4 5 6 6 6 6 7 6 5 5 4 3
-17 -16 -15 -15 -15 -15 -15 -15 -14 -13 -12 -12 -11 -9 -9 -7 -7 -8 -7 -5 -3 -2 -0 1 2 4 5 5 6 6 6 6 6 6 6 5 5 5 5 5 5 5 5 6 6 6 6 6 6 5 4 3
-17 -17 -17 -17 -17 -17 -17 -17 -17 -16 -16 -16 -16 -13 -12 -12 -12 -14 -15 -14 -13 -10 -7 -4 -1 0 2 3 4 5 6 6 6 6 6 5 5 5 5 5 5 5 5 5 5 6 6 6 6 5 4 3
-17 -17 -17 -17 -17 -17 -17 -18 -18 -18 -18 -17 -18 -18 -16 -15 -15 -15 -14 -15 -18 -19 -16 -10 -6 -2 -1 0 1 2 3 4 5 6 6 6 5 4 4 4 5 4 4 5 5 5 6 6 6 5 5 4
-17 -17 -17 -17 -17 -18 -17 -18 -18 -18 -18 -19 -18 -19 -18 -18 -18 -17 -14 -11 -13 -15 -19 -19 -14 -8 -5 -3 -2 -2 -1 1 3 4 5 6 5 5 4 4 5 5 4 4 4 4 5 6 6 5 5 4
-17 -17 -17 -17 -17 -17 -18 -17 -18 -19 -18 -19 -19 -19 -19 -19 -19 -19 -18 -14 -12 -12 -14 -19 -21 -17 -13 -9 -6 -5 -6 -5 -2 1 3 4 5 5 5 5 5 5 4 4 4 4 4 5 6 6 6 5
-17 -17 -17 -17 -17 -17 -17 -17 -18 -18 -19 -20 -20 -21 -21 -21 -21 -20 -22 -20 -18 -16 -15 -17 -20 -21 -19 -17 -12 -9 -8 -9 -9 -5 -2 -0 2 4 5 5 5 5 4 4 3 3 3 4 5 5 6 5
-17 -17 -17 -17 -17 -17 -17 -17 -17 -18 -19 -20 -20 -21 -21 -21 -22 -22 -22 -23 -23 -22 -21 -21 -21 -21 -21 -20 -20 -15 -12 -11 -13 -13 -10 -7 -3 0 2 4 5 5 4 4 4 3 3 4 4 4 5 5
-17 -17 -17 -17 -18 -18 -18 -18 -18 -19 -19 -20 -20 -21 -22 -22 -22 -23 -22 -23 -23 -24 -23 -24 -23 -23 -23 -22 -22 -20 -17 -14 -14 -16 -15 -14 -10 -6 -3 -1 2 4 5 4 4 4 4 4 4 4 4 5
-19 -19 -19 -19 -19 -19 -19 -20 -20 -20 -21 -21 -22 -22 -22 -22 -23 -23 -23 -23 -23 -24 -23 -23 -24 -23 -24 -24 -24 -24 -23 -19 -17 -18 -18 -19 -18 -15 -10 -7 -5 -1 3 5 4 4 4 4 4 3 4 4
-22 -21 -22 -22 -22 -22 -22 -22 -22 -22 -23 -23 -23 -24 -24 -24 -24 -24 -24 -24 -24 -24 -23 -23 -23 -23 -24 -24 -25 -25 -26 -25 -22 -22 -22 -22 -24 -22 -19 -14 -11 -10 -4 2 4 4 3 4 5 4 4 3
-24 -24 -25 -25 -24 -25 -24 -24 -24 -24 -24 -24 -24 -24 -24 -24 -24 -24 -25 -25 -25 -24 -24 -23 -22 -22 -22 -22 -23 -24 -25 -26 -25 -24 -25 -26 -27 -26 -26 -22 -16 -13 -14 -7 1 4 4 3 4 4 4 4
-25 -26 -26 -26 -26 -26 -25 -25 -24 -25 -25 -25 -25 -24 -24 -24 -24 -24 -25 -25 -26 -26 -24 -22 -21 -21 -21 -20 -21 -22 -23 -24 -25 -25 -24 -26 -27 -28 -27 -27 -22 -15 -15 -17 -8 -0 3 4 4 4 4 4
-26 -26 -27 -27 -26 -26 -25 -24 -22 -21 -22 -23 -23 -23 -23 -23 -23 -23 -23 -24 -25 -26 -25 -22 -21 -20 -19 -19 -19 -19 -20 -20 -22 -23 -23 -25 -26 -28 -28 -26 -26 -20 -17 -18 -15 -8 -1 3 4 4 4 4
-26 -26 -26 -26 -25 -25 -23 -23 -20 -17 -17 -18 -18 -20 -21 -20 -20 -21 -21 -23 -24 -25 -24 -22 -19 -18 -17 -16 -16 -17 -17 -18 -18 -19 -20 -22 -24 -24 -27 -27 -26 -24 -20 -19 -15 -10 -6 -1 3 4 4 4
-27 -26 -25 -24 -22 -23 -22 -21 -19 -14 -13 -14 -15 -17 -18 -18 -19 -19 -19 -21 -22 -24 -23 -21 -18 -15 -15 -14 -14 -14 -15 -16 -16 -16 -16 -17 -20 -21 -23 -24 -24 -23 -19 -18 -14 -7 -7 -6 0 3 3 3
-27 -27 -27 -26 -23 -21 -20 -20 -18 -14 -12 -13 -14 -15 -16 -16 -17 -17 -17 -19 -21 -22 -21 -20 -18 -14 -13 -12 -13 -13 -13 -14 -14 -14 -14 -15 -17 -18 -20 -21 -21 -22 -17 -14 -11 -6 -4 -7 -4 1 3 3
-26 -27 -29 -30 -28 -25 -22 -18 -16 -15 -13 -13 -13 -13 -14 -14 -15 -15 -16 -18 -20 -21 -20 -20 -19 -16 -14 -12 -12 -12 -12 -12 -12 -13 -13 -14 -15 -16 -17 -19 -19 -19 -17 -13 -10 -5 -3 -3 -4 -3 -0 3
-25 -27 -28 -29 -30 -31 -29 -24 -20 -17 -15 -14 -14 -13 -13 -13 -13 -14 -15 -16 -18 -19 -20 -20 -20 -19 -17 -15 -13 -12 -11 -11 -11 -12 -12 -13 -14 -15 -16 -17 -18 -18 -18 -15 -11 -7 -3 -1 -1 -3 -3 0
-24 -25 -26 -26 -28 -30 -32 -32 -28 -23 -20 -18 -16 -14 -13 -12 -12 -13 -14 -15 -16 -18 -19 -19 -20 -19 -18 -16 -15 -14 -12 -11 -11 -11 -11 -12 -13 -14 -15 -15 -16 -17 -17 -17 -14 -9 -6 -3 -0 0 -1 -1
-22 -23 -23 -24 -26 -28 -28 -29 -29 -29 -26 -22 -19 -17 -15 -13 -12 -12 -13 -14 -15 -16 -18 -19 -19 -18 -15 -14 -14 -14 -13 -12 -11 -11 -11 -12 -12 -13 -14 -14 -15 -15 -15 -16 -16 -12 -8 -5 -2 0 1 -1
-21 -22 -22 -23 -25 -26 -27 -28 -29 -30 -30 -27 -24 -21 -18 -14 -12 -11 -12 -13 -15 -16 -18 -19 -19 -18 -14 -12 -12 -12 -12 -12 -11 -11 -11 -11 -12 -13 -13 -14 -14 -13 -13 -14 -14 -13 -9 -7 -5 -2 0 1
-21 -21 -22 -24 -25 -26 -26 -27 -28 -29 -31 -31 -29 -26 -21 -16 -12 -11 -12 -13 -14 -16 -18 -19 -17 -16 -14 -13 -12 -11 -11 -11 -11 -11 -11 -11 -11 -12 -13 -13 -13 -13 -12 -13 -13 -12 -9 -6 -4 -3 -1 0
-20 -21 -22 -24 -25 -25 -26 -26 -27 -28 -29 -31 -29 -27 -26 -21 -15 -12 -12 -13 -14 -15 -18 -19 -16 -13 -13 -13 -13 -12 -11 -11 -11 -11 -11 -11 -11 -12 -12 -13 -13 -13 -12 -11 -12 -12 -9 -6 -4 -3 -2 -1
-20 -21 -22 -23 -23 -23 -23 -24 -25 -25 -26 -27 -27 -24 -23 -23 -20 -17 -15 -14 -14 -15 -17 -19 -16 -13 -12 -12 -13 -12 -11 -10 -11 -11 -11 -11 -11 -11 -12 -12 -11 -11 -11 -11 -11 -12 -9 -6 -3 -2 -2 -1
-20 -21 -21 -21 -21 -21 -20 -21 -22 -22 -22 -22 -22 -23 -23 -22 -20 -20 -19 -17 -16 -16 -16 -18 -18 -14 -12 -12 -12 -12 -11 -9 -9 -10 -11 -11 -11 -11 -11 -11 -10 -10 -11 -11 -11 -11 -11 -9 -6 -4 -3 -2
-20 -20 -20 -20 -20 -19 -19 -19 -20 -20 -20 -19 -18 -19 -24 -27 -22 -19 -19 -20 -19 -18 -18 -17 -17 -16 -14 -12 -12 -11 -11 -10 -9 -9 -10 -10 -10 -10 -10 -9 -9 -9 -10 -10 -10 -10 -11 -12 -10 -8 -7 -5

ECMWFFLT2_850_dewp_030.txt.gz
Dewpoint
-2 -2 -0 1 2 2 3 3 4 4 5 5 6 5 5 6 6 6 6 7 7 7 7 8 8 8 8 8 7 7 7 7 7 6 7 7 7 6 6 6 6 6 6 7 8 7 7 7 6 5 4 2
-6 -7 -6 -4 -3 -2 -1 -0 0 2 3 4 4 4 4 5 5 5 6 5 6 6 7 7 7 7 7 7 7 7 7 7 6 6 6 6 6 6 6 6 5 5 5 6 7 7 7 7 6 5 5 3
-10 -10 -10 -10 -9 -7 -5 -4 -3 -2 -1 1 2 2 2 2 3 4 5 5 5 5 6 6 6 7 7 7 7 7 7 7 7 6 6 6 6 6 6 6 5 5 5 5 6 7 7 7 6 6 5 4
-13 -13 -14 -14 -14 -13 -11 -9 -6 -5 -5 -4 -2 -1 -2 -2 -0 0 2 3 3 4 4 5 5 6 6 7 7 7 7 7 7 6 6 6 6 6 6 6 6 5 5 5 5 6 7 7 6 6 5 4
-16 -16 -16 -16 -16 -16 -16 -15 -12 -9 -8 -8 -7 -6 -6 -6 -6 -5 -5 -3 -1 0 1 2 2 3 4 5 6 6 6 7 6 6 6 6 6 6 5 6 6 6 5 5 5 6 7 7 6 6 5 4
-16 -17 -16 -17 -17 -17 -17 -17 -17 -15 -14 -12 -11 -10 -9 -8 -10 -10 -10 -10 -9 -7 -4 -2 -1 -0 1 3 4 3 4 6 6 6 6 6 6 6 6 5 6 6 5 5 5 6 7 7 6 6 5 4
-16 -16 -16 -16 -16 -16 -17 -17 -17 -17 -17 -17 -16 -15 -11 -9 -10 -11 -11 -11 -10 -12 -12 -9 -6 -4 -3 -1 1 1 1 3 5 6 6 6 6 6 6 6 5 5 5 5 5 5 6 6 6 6 5 4
-17 -16 -16 -16 -16 -16 -16 -16 -17 -17 -17 -17 -18 -18 -16 -13 -11 -11 -12 -12 -10 -9 -11 -12 -12 -10 -8 -5 -3 -1 -1 -1 1 3 4 5 5 6 6 6 5 5 5 6 5 4 4 6 6 6 5 5
-17 -17 -17 -17 -17 -16 -16 -16 -16 -16 -16 -16 -17 -17 -18 -17 -15 -14 -13 -14 -13 -10 -8 -8 -10 -13 -13 -12 -10 -6 -3 -3 -3 -1 0 2 3 4 5 5 5 5 5 6 5 4 4 5 6 6 5 5
-19 -19 -19 -18 -18 -18 -17 -17 -17 -16 -17 -17 -17 -18 -18 -18 -18 -18 -16 -16 -18 -16 -13 -9 -8 -8 -10 -12 -14 -14 -11 -7 -6 -5 -3 -2 -1 0 2 4 5 5 5 6 6 5 4 5 5 6 6 5
-21 -21 -21 -21 -20 -20 -19 -19 -19 -18 -19 -19 -19 -19 -19 -20 -20 -20 -20 -19 -19 -20 -20 -17 -12 -10 -9 -8 -9 -11 -16 -16 -13 -10 -8 -6 -5 -4 -4 -1 3 4 5 5 5 5 5 5 5 5 6 5
-22 -23 -24 -24 -24 -23 -23 -23 -23 -22 -22 -22 -21 -21 -21 -21 -22 -22 -22 -21 -21 -21 -21 -22 -20 -17 -14 -13 -10 -9 -11 -15 -21 -20 -16 -12 -8 -8 -9 -9 -4 -0 3 4 5 5 5 5 5 5 5 5
-23 -24 -25 -26 -27 -27 -27 -26 -26 -25 -24 -24 -24 -24 -23 -23 -24 -24 -24 -24 -24 -24 -23 -23 -23 -23 -20 -20 -17 -15 -12 -11 -15 -23 -24 -20 -15 -12 -12 -13 -13 -10 -5 0 3 5 5 5 5 5 5 5
-22 -24 -25 -27 -29 -30 -30 -28 -27 -25 -22 -22 -23 -24 -25 -25 -24 -25 -25 -25 -25 -25 -26 -26 -25 -25 -25 -24 -23 -23 -20 -14 -13 -18 -24 -24 -22 -19 -16 -15 -16 -17 -16 -9 -1 2 4 5 5 5 5 4
-22 -24 -25 -27 -29 -30 -31 -30 -29 -25 -21 -18 -19 -21 -24 -24 -23 -24 -24 -24 -25 -24 -25 -25 -26 -26 -26 -28 -27 -26 -27 -23 -19 -20 -23 -25 -25 -25 -23 -20 -19 -20 -23 -22 -12 -4 1 3 4 4 4 4
-23 -24 -26 -27 -29 -30 -32 -32 -30 -28 -21 -16 -16 -17 -19 -22 -22 -22 -23 -23 -24 -24 -24 -24 -24 -26 -27 -26 -27 -28 -28 -29 -27 -26 -26 -25 -25 -25 -27 -26 -23 -23 -23 -26 -23 -14 -7 -2 1 3 4 4
-24 -25 -26 -27 -29 -30 -31 -33 -32 -30 -21 -15 -14 -16 -18 -20 -21 -20 -21 -22 -24 -24 -23 -23 -24 -25 -27 -26 -26 -26 -26 -27 -28 -28 -28 -26 -26 -25 -26 -28 -27 -26 -26 -26 -27 -23 -16 -11 -6 -2 0 3
-24 -25 -26 -27 -28 -29 -31 -33 -33 -31 -23 -17 -16 -19 -19 -19 -19 -18 -18 -20 -22 -22 -22 -22 -23 -25 -26 -27 -26 -26 -24 -24 -24 -24 -25 -26 -26 -26 -26 -28 -28 -27 -27 -27 -29 -27 -21 -16 -12 -8 -6 -2
-25 -25 -26 -27 -27 -28 -29 -31 -33 -31 -26 -21 -18 -18 -18 -17 -17 -16 -17 -18 -19 -19 -20 -21 -22 -23 -25 -27 -28 -28 -24 -22 -21 -19 -19 -20 -22 -25 -25 -26 -28 -28 -27 -27 -28 -29 -23 -16 -13 -11 -10 -7
-24 -24 -25 -26 -26 -28 -29 -30 -31 -31 -30 -25 -20 -17 -16 -15 -15 -16 -16 -16 -16 -17 -17 -18 -20 -22 -24 -27 -27 -27 -25 -22 -19 -16 -15 -15 -16 -19 -22 -24 -25 -26 -26 -28 -26 -28 -29 -19 -13 -11 -11 -11
-23 -23 -24 -24 -25 -26 -29 -30 -29 -30 -31 -30 -27 -23 -20 -18 -19 -17 -15 -13 -13 -15 -16 -16 -18 -20 -23 -26 -25 -25 -24 -21 -17 -14 -13 -13 -11 -12 -16 -19 -22 -24 -24 -24 -26 -25 -26 -23 -16 -10 -7 -8
-22 -22 -22 -23 -23 -24 -27 -28 -28 -29 -30 -31 -31 -29 -26 -26 -26 -21 -15 -12 -10 -11 -13 -15 -16 -17 -21 -23 -24 -23 -23 -21 -18 -15 -13 -12 -10 -9 -11 -13 -15 -18 -22 -22 -24 -24 -22 -22 -19 -12 -6 -3
-21 -21 -21 -21 -21 -22 -23 -25 -26 -27 -28 -29 -29 -28 -28 -28 -28 -23 -16 -12 -10 -10 -11 -13 -14 -15 -17 -21 -23 -21 -21 -21 -17 -14 -13 -12 -11 -10 -10 -10 -11 -13 -17 -20 -21 -23 -23 -21 -19 -15 -9 -3
-20 -20 -20 -20 -20 -20 -21 -23 -24 -25 -26 -28 -29 -30 -30 -28 -28 -27 -20 -14 -11 -11 -10 -11 -13 -13 -15 -18 -21 -20 -19 -18 -15 -13 -12 -12 -11 -10 -10 -9 -9 -10 -12 -16 -19 -20 -22 -23 -21 -17 -13 -7
-19 -19 -19 -19 -19 -19 -20 -21 -22 -23 -24 -26 -29 -31 -32 -33 -30 -29 -24 -16 -11 -10 -11 -11 -11 -13 -13 -14 -16 -17 -17 -16 -15 -14 -13 -12 -11 -10 -10 -9 -8 -8 -9 -11 -13 -15 -18 -19 -21 -21 -18 -12
-19 -18 -18 -18 -18 -18 -19 -20 -20 -21 -23 -25 -26 -30 -32 -34 -32 -29 -25 -19 -13 -10 -10 -11 -11 -12 -12 -12 -12 -13 -14 -16 -16 -14 -12 -11 -10 -9 -9 -9 -8 -8 -8 -8 -9 -10 -11 -12 -14 -17 -20 -18
-18 -18 -18 -18 -18 -18 -19 -20 -20 -20 -21 -21 -22 -24 -26 -29 -33 -31 -27 -24 -19 -14 -12 -11 -11 -12 -13 -12 -11 -11 -12 -13 -13 -12 -10 -10 -9 -9 -8 -8 -8 -8 -8 -9 -10 -9 -8 -10 -11 -11 -14 -17
-17 -17 -18 -17 -17 -18 -19 -18 -19 -19 -19 -19 -19 -18 -20 -23 -25 -23 -22 -24 -27 -22 -18 -15 -13 -12 -13 -13 -11 -10 -10 -10 -10 -10 -9 -8 -8 -8 -9 -8 -8 -8 -8 -9 -10 -10 -9 -9 -9 -10 -9 -8
-17 -17 -17 -17 -17 -17 -18 -18 -18 -18 -18 -18 -18 -18 -18 -19 -20 -20 -21 -23 -27 -27 -25 -22 -18 -14 -13 -13 -12 -11 -10 -10 -10 -9 -9 -8 -8 -8 -8 -8 -8 -8 -8 -8 -8 -10 -10 -10 -9 -9 -7 -4
-16 -16 -16 -17 -17 -17 -17 -17 -17 -18 -18 -18 -18 -18 -18 -19 -19 -20 -23 -24 -23 -23 -23 -22 -21 -18 -15 -13 -12 -11 -11 -10 -10 -10 -9 -9 -8 -8 -8 -8 -8 -8 -8 -7 -7 -8 -9 -10 -10 -8 -5 -5
-15 -16 -16 -17 -17 -17 -17 -17 -17 -18 -18 -18 -18 -19 -19 -19 -20 -21 -23 -22 -19 -18 -18 -18 -19 -20 -18 -15 -13 -11 -10 -10 -10 -10 -9 -10 -9 -8 -8 -8 -7 -7 -8 -8 -7 -8 -8 -8 -9 -9 -7 -7

ECMWFFLT2_850_dewp_033.txt.gz
Dewpoint
-8 -7 -6 -5 -3 -1 1 2 3 4 5 5 5 5 6 6 6 6 6 7 7 7 7 7 7 7 8 8 8 8 8 7 7 7 7 7 7 7 8 8 7 7 8 7 8 7 6 6 7 6 6 4
-13 -13 -13 -11 -8 -6 -5 -3 -2 0 2 3 4 4 5 5 5 5 5 6 6 6 6 6 7 7 7 7 8 8 8 8 7 7 7 7 7 7 7 7 7 7 7 7 7 7 7 7 7 6 6 5
-16 -16 -16 -15 -14 -13 -11 -9 -7 -6 -4 -1 1 2 2 3 4 4 4 5 5 5 5 5 6 6 6 7 7 7 7 8 7 7 7 7 7 7 7 6 6 6 7 7 7 6 7 7 7 6 6 5
-17 -17 -16 -17 -17 -17 -16 -15 -13 -11 -9 -7 -4 -2 -1 -0 0 2 3 3 3 3 3 3 3 4 3 4 6 6 6 7 7 7 7 7 6 6 6 6 6 6 6 7 7 6 7 7 7 6 6 5
-17 -16 -16 -17 -17 -17 -18 -17 -17 -16 -15 -13 -11 -9 -6 -4 -3 -3 -1 -0 0 1 1 -0 -1 -1 -2 -1 1 3 4 6 7 7 7 7 6 6 6 6 6 6 6 7 7 6 6 7 7 7 6 6
-17 -17 -16 -17 -17 -16 -16 -17 -17 -17 -17 -17 -17 -16 -12 -8 -6 -5 -4 -4 -3 -3 -3 -3 -4 -5 -7 -7 -6 -3 -0 2 5 6 6 7 6 6 6 6 6 6 6 6 7 6 6 6 7 7 6 6
-18 -18 -17 -17 -18 -17 -16 -17 -17 -16 -17 -17 -17 -17 -17 -15 -11 -9 -7 -5 -5 -4 -5 -6 -6 -7 -8 -9 -9 -8 -6 -3 0 3 5 6 6 6 6 6 6 6 6 6 7 6 6 6 6 7 6 6
-18 -19 -19 -18 -20 -19 -17 -19 -18 -17 -17 -17 -17 -17 -17 -18 -17 -15 -13 -10 -8 -5 -3 -4 -5 -5 -6 -7 -8 -10 -10 -9 -6 -2 2 4 5 6 6 6 6 6 6 6 7 6 6 5 6 6 6 6
-17 -19 -19 -20 -22 -19 -19 -21 -19 -18 -19 -19 -18 -18 -18 -18 -18 -18 -18 -18 -16 -11 -6 -4 -4 -4 -4 -4 -5 -7 -10 -11 -11 -10 -5 -0 3 5 5 6 6 6 6 6 6 6 6 5 5 6 6 6
-17 -18 -18 -20 -21 -20 -21 -22 -19 -19 -21 -20 -18 -17 -19 -20 -20 -20 -19 -20 -20 -18 -15 -10 -7 -6 -5 -6 -5 -4 -5 -9 -11 -13 -13 -9 -3 0 2 4 4 5 5 5 6 6 6 5 5 6 6 6
-17 -18 -18 -19 -20 -20 -21 -23 -22 -23 -22 -17 -15 -16 -18 -21 -23 -23 -22 -21 -21 -21 -20 -18 -14 -11 -9 -10 -10 -8 -5 -6 -9 -11 -14 -15 -13 -9 -4 -0 0 3 5 5 5 6 6 5 5 5 5 6
-19 -19 -19 -19 -20 -19 -20 -22 -24 -26 -21 -14 -12 -14 -15 -20 -24 -24 -23 -21 -22 -24 -24 -24 -21 -18 -15 -13 -14 -15 -12 -9 -10 -10 -10 -12 -16 -19 -14 -9 -8 -4 1 3 4 5 6 5 5 5 4 5
-20 -20 -20 -20 -20 -20 -20 -22 -24 -24 -20 -13 -12 -12 -13 -19 -23 -21 -21 -19 -20 -23 -25 -26 -27 -25 -23 -19 -16 -17 -20 -17 -15 -15 -13 -10 -11 -16 -21 -17 -15 -13 -8 -3 1 3 5 5 5 5 4 4
-21 -21 -21 -21 -21 -21 -20 -22 -22 -22 -21 -16 -12 -10 -11 -16 -18 -18 -20 -18 -18 -19 -20 -25 -27 -26 -27 -27 -25 -21 -21 -22 -21 -22 -20 -15 -11 -11 -16 -21 -20 -19 -18 -14 -10 -5 -0 3 5 5 5 4
-21 -22 -22 -22 -22 -22 -21 -22 -22 -22 -22 -17 -12 -10 -11 -13 -15 -16 -17 -16 -15 -15 -17 -20 -19 -20 -26 -27 -28 -27 -25 -26 -25 -25 -26 -26 -20 -14 -14 -17 -21 -23 -22 -21 -21 -17 -11 -4 1 4 5 5
-22 -22 -22 -23 -23 -23 -22 -22 -22 -23 -22 -16 -12 -11 -12 -14 -16 -15 -13 -13 -14 -15 -16 -17 -16 -17 -19 -20 -23 -24 -26 -30 -30 -28 -29 -31 -30 -24 -19 -16 -17 -22 -25 -24 -25 -25 -22 -16 -8 -0 4 5
-23 -22 -23 -23 -24 -24 -24 -23 -23 -23 -21 -16 -14 -14 -14 -14 -14 -12 -11 -11 -13 -14 -16 -15 -15 -15 -14 -14 -15 -16 -20 -29 -30 -29 -30 -31 -34 -32 -27 -21 -18 -19 -23 -26 -26 -26 -25 -24 -19 -11 -2 2
-23 -24 -23 -24 -25 -25 -25 -25 -24 -23 -21 -19 -19 -17 -15 -14 -13 -12 -11 -10 -11 -12 -13 -13 -13 -12 -11 -11 -11 -12 -18 -23 -21 -26 -34 -33 -34 -35 -36 -32 -26 -22 -22 -26 -27 -27 -27 -26 -25 -21 -12 -4
-22 -23 -23 -23 -24 -24 -25 -26 -26 -26 -24 -23 -23 -20 -18 -17 -15 -14 -13 -14 -13 -10 -10 -11 -12 -11 -11 -10 -10 -11 -16 -15 -14 -18 -23 -25 -26 -29 -34 -35 -34 -29 -25 -26 -27 -28 -28 -28 -26 -25 -21 -15
-19 -20 -20 -21 -21 -21 -21 -22 -22 -23 -25 -25 -25 -24 -22 -20 -18 -19 -20 -21 -16 -11 -9 -10 -10 -11 -11 -10 -9 -10 -12 -12 -12 -12 -12 -13 -17 -22 -27 -32 -36 -33 -29 -27 -28 -29 -28 -28 -28 -27 -26 -21
-18 -18 -18 -18 -19 -18 -18 -18 -18 -19 -21 -24 -25 -25 -23 -22 -23 -25 -25 -25 -19 -14 -11 -10 -10 -10 -11 -11 -10 -9 -10 -10 -11 -10 -9 -8 -10 -12 -15 -18 -21 -24 -26 -27 -28 -32 -30 -29 -30 -27 -29 -26
-18 -18 -17 -17 -18 -18 -17 -17 -17 -18 -18 -20 -22 -23 -23 -24 -26 -27 -26 -26 -24 -18 -13 -11 -10 -10 -10 -10 -10 -9 -9 -9 -9 -10 -10 -9 -8 -8 -9 -10 -12 -13 -15 -17 -20 -25 -31 -29 -31 -29 -28 -30
-17 -17 -17 -17 -17 -17 -17 -17 -17 -18 -18 -18 -20 -20 -21 -23 -25 -27 -27 -26 -24 -21 -16 -12 -11 -10 -11 -10 -10 -10 -9 -9 -9 -9 -9 -9 -8 -8 -8 -8 -9 -10 -11 -12 -14 -18 -25 -29 -31 -31 -29 -29
-19 -19 -19 -18 -18 -18 -18 -17 -17 -18 -18 -19 -19 -19 -18 -20 -22 -23 -25 -27 -25 -21 -16 -13 -11 -11 -11 -10 -11 -10 -10 -9 -9 -9 -9 -8 -8 -7 -7 -7 -8 -9 -9 -10 -11 -13 -16 -22 -28 -32 -31 -29
-20 -19 -20 -19 -18 -19 -18 -18 -18 -18 -18 -19 -18 -18 -17 -17 -18 -18 -19 -23 -26 -23 -19 -16 -14 -12 -11 -11 -11 -11 -10 -10 -10 -9 -9 -8 -8 -8 -7 -7 -7 -8 -8 -8 -9 -9 -11 -13 -16 -22 -29 -31
-19 -19 -19 -18 -18 -18 -18 -18 -18 -18 -18 -18 -18 -17 -17 -17 -17 -16 -17 -18 -19 -20 -19 -17 -17 -16 -14 -12 -12 -12 -11 -10 -10 -10 -9 -9 -8 -8 -8 -8 -8 -8 -8 -8 -8 -8 -8 -9 -10 -13 -19 -25
-18 -18 -18 -17 -17 -17 -17 -17 -17 -18 -18 -18 -18 -18 -18 -18 -18 -17 -17 -17 -16 -17 -19 -19 -19 -20 -19 -16 -14 -12 -12 -11 -11 -10 -10 -9 -9 -9 -8 -8 -8 -8 -8 -8 -8 -8 -8 -9 -9 -10 -11 -14
-18 -18 -17 -16 -16 -16 -16 -16 -17 -17 -18 -18 -19 -19 -19 -19 -19 -18 -18 -18 -17 -18 -19 -21 -21 -20 -18 -18 -16 -14 -13 -12 -11 -11 -10 -10 -9 -8 -8 -9 -8 -8 -8 -8 -8 -8 -9 -10 -10 -11 -10 -10
-17 -16 -15 -15 -15 -16 -16 -16 -17 -17 -17 -18 -18 -19 -19 -19 -20 -20 -19 -19 -18 -18 -18 -20 -22 -20 -17 -16 -17 -16 -15 -13 -12 -11 -10 -10 -9 -9 -9 -9 -9 -9 -9 -8 -8 -8 -9 -10 -10 -10 -10 -9
-16 -15 -15 -15 -15 -16 -16 -16 -17 -17 -17 -18 -18 -18 -19 -19 -20 -20 -20 -19 -19 -19 -19 -20 -21 -19 -16 -15 -16 -15 -15 -14 -13 -11 -11 -10 -10 -9 -9 -8 -9 -9 -9 -9 -9 -8 -8 -9 -10 -10 -9 -7
-15 -15 -15 -16 -16 -16 -16 -16 -17 -17 -17 -18 -18 -18 -18 -19 -20 -20 -20 -20 -21 -21 -20 -20 -19 -17 -16 -15 -16 -16 -15 -15 -13 -11 -11 -11 -11 -10 -9 -9 -9 -9 -9 -9 -9 -8 -8 -8 -8 -9 -9 -8

ECMWFFLT2_850_dewp_036.txt.gz
Dewpoint
-16 -15 -15 -13 -12 -9 -7 -5 -3 -1 -0 1 3 4 4 5 5 5 5 6 6 6 6 7 7 7 7 7 8 8 8 8 8 8 8 7 7 7 7 7 8 8 8 8 8 8 8 7 6 6 6 6
-16 -16 -17 -17 -17 -16 -14 -11 -9 -7 -6 -4 -1 1 2 3 4 4 4 5 5 5 5 6 6 7 7 7 7 7 8 8 8 8 8 7 7 7 7 8 8 8 7 8 8 8 8 7 6 6 6 6
-15 -15 -16 -17 -17 -17 -17 -17 -15 -14 -12 -10 -7 -4 -1 1 1 2 2 3 3 4 4 5 5 6 6 6 6 6 7 7 7 7 8 7 7 8 8 8 8 8 7 8 8 8 7 6 6 7 6 6
-17 -16 -17 -17 -17 -16 -17 -18 -18 -18 -17 -16 -13 -11 -7 -4 -2 -1 -0 -0 0 1 2 3 4 4 5 4 4 5 6 6 6 7 7 7 7 7 8 8 8 7 7 7 7 8 7 5 6 7 7 6
-18 -18 -18 -19 -18 -16 -17 -18 -17 -18 -18 -17 -17 -16 -14 -11 -7 -5 -3 -2 -2 -2 -1 -0 1 1 2 2 2 2 3 5 5 5 6 7 7 7 7 7 7 7 6 7 7 7 7 5 5 7 7 6
-17 -17 -17 -18 -18 -17 -18 -19 -17 -17 -17 -17 -17 -18 -18 -17 -14 -11 -8 -6 -4 -4 -3 -3 -2 -2 -1 -0 0 -1 -1 1 2 3 5 6 6 7 7 7 7 7 6 6 7 7 7 6 5 6 7 6
-16 -16 -16 -16 -17 -17 -18 -19 -19 -19 -19 -18 -17 -17 -17 -18 -19 -18 -15 -13 -10 -8 -7 -5 -3 -3 -3 -3 -2 -3 -4 -3 -3 -2 2 4 6 6 6 7 7 6 6 6 7 7 7 6 5 5 6 6
-15 -15 -15 -16 -16 -16 -17 -17 -18 -19 -20 -18 -16 -15 -17 -17 -19 -20 -20 -19 -17 -15 -13 -11 -7 -4 -3 -3 -3 -3 -5 -5 -6 -7 -6 -1 3 5 6 6 6 6 6 6 6 7 7 6 5 5 6 6
-15 -15 -15 -15 -15 -16 -16 -16 -16 -17 -19 -17 -13 -12 -15 -18 -19 -21 -21 -21 -20 -19 -18 -17 -15 -11 -7 -4 -3 -3 -3 -5 -5 -6 -9 -8 -4 0 3 5 6 6 6 6 6 7 7 6 6 6 6 6
-17 -16 -16 -15 -15 -16 -16 -15 -16 -15 -17 -17 -13 -11 -13 -15 -18 -21 -22 -23 -23 -21 -21 -20 -19 -18 -15 -10 -6 -4 -3 -3 -4 -4 -6 -9 -10 -7 -2 1 4 5 6 6 6 7 7 6 6 6 6 6
-18 -17 -17 -17 -16 -16 -16 -16 -16 -16 -16 -17 -16 -12 -11 -13 -16 -18 -21 -22 -24 -23 -23 -23 -22 -22 -21 -18 -15 -11 -8 -5 -4 -4 -4 -5 -8 -10 -8 -5 -1 2 5 6 6 7 7 6 5 4 6 6
-18 -19 -19 -19 -18 -18 -17 -16 -16 -18 -18 -18 -19 -14 -10 -12 -15 -17 -20 -21 -23 -23 -23 -24 -24 -25 -24 -23 -21 -19 -16 -11 -7 -7 -6 -4 -5 -6 -9 -9 -9 -6 0 5 6 6 6 6 5 4 5 5
-19 -19 -19 -20 -20 -20 -19 -18 -17 -18 -19 -20 -20 -14 -11 -14 -17 -18 -20 -21 -21 -22 -22 -24 -25 -27 -26 -24 -24 -22 -20 -17 -11 -8 -8 -7 -5 -5 -7 -10 -11 -12 -8 -1 3 6 6 6 5 5 5 5
-20 -20 -20 -20 -21 -21 -21 -20 -19 -19 -19 -20 -20 -17 -15 -17 -19 -20 -20 -19 -19 -19 -20 -23 -25 -25 -25 -27 -26 -23 -20 -20 -17 -12 -9 -9 -8 -7 -7 -10 -12 -13 -14 -11 -4 2 5 5 6 5 5 4
-22 -22 -22 -22 -22 -22 -22 -22 -21 -21 -21 -21 -21 -20 -19 -20 -19 -19 -19 -18 -17 -18 -19 -20 -23 -24 -26 -26 -21 -18 -18 -20 -21 -18 -13 -9 -9 -9 -8 -10 -13 -15 -15 -17 -16 -8 -1 3 4 5 5 5
-21 -21 -22 -22 -23 -23 -24 -24 -24 -23 -22 -21 -22 -22 -22 -22 -21 -19 -19 -19 -19 -19 -19 -21 -22 -21 -22 -23 -20 -16 -14 -15 -18 -22 -20 -13 -10 -10 -10 -10 -13 -18 -18 -14 -17 -20 -13 -6 -2 2 4 5
-19 -19 -20 -20 -21 -22 -23 -23 -24 -24 -24 -23 -22 -23 -23 -23 -22 -21 -20 -21 -22 -22 -23 -26 -22 -17 -17 -20 -18 -14 -12 -12 -16 -24 -22 -17 -14 -11 -11 -10 -11 -15 -21 -17 -15 -17 -20 -20 -13 -6 -1 3
-18 -18 -18 -19 -19 -20 -20 -20 -20 -20 -21 -21 -21 -22 -23 -24 -24 -23 -23 -23 -24 -25 -27 -30 -23 -16 -14 -15 -15 -13 -13 -13 -16 -20 -18 -18 -21 -18 -14 -13 -12 -12 -16 -21 -19 -15 -17 -21 -22 -18 -10 -3
-18 -17 -17 -18 -18 -18 -18 -18 -18 -17 -17 -18 -19 -20 -21 -23 -24 -25 -25 -24 -25 -26 -26 -29 -29 -20 -13 -11 -13 -15 -15 -15 -15 -16 -17 -17 -17 -15 -13 -14 -16 -14 -13 -17 -22 -23 -21 -19 -20 -23 -21 -14
-18 -17 -17 -17 -18 -17 -17 -17 -17 -17 -16 -16 -17 -18 -19 -20 -21 -23 -25 -26 -26 -26 -26 -27 -30 -29 -18 -12 -10 -13 -14 -14 -14 -13 -14 -14 -12 -10 -10 -11 -15 -19 -18 -17 -19 -25 -29 -25 -21 -20 -22 -24
-19 -19 -18 -18 -18 -17 -17 -17 -17 -17 -16 -17 -17 -17 -18 -18 -19 -19 -20 -23 -25 -25 -26 -26 -27 -30 -28 -17 -11 -10 -12 -13 -12 -10 -10 -12 -12 -10 -8 -7 -8 -12 -16 -19 -21 -26 -31 -31 -24 -19 -18 -23
-21 -20 -20 -19 -19 -19 -18 -18 -18 -17 -17 -17 -17 -17 -18 -18 -18 -17 -17 -19 -20 -20 -21 -23 -25 -26 -28 -23 -13 -10 -10 -11 -11 -10 -10 -11 -13 -11 -10 -8 -7 -7 -10 -13 -17 -22 -29 -33 -30 -23 -19 -20
-20 -20 -20 -20 -20 -20 -19 -19 -19 -19 -18 -17 -17 -18 -18 -18 -17 -17 -16 -17 -16 -16 -17 -18 -20 -21 -23 -22 -16 -12 -11 -11 -10 -10 -10 -10 -11 -11 -11 -11 -10 -9 -9 -10 -12 -17 -26 -34 -34 -32 -25 -22
-18 -19 -19 -19 -19 -19 -19 -19 -19 -19 -18 -18 -18 -18 -19 -18 -18 -17 -17 -17 -16 -16 -16 -16 -16 -17 -18 -20 -19 -16 -13 -12 -11 -10 -10 -10 -10 -9 -9 -9 -9 -9 -8 -9 -11 -15 -23 -31 -34 -35 -35 -30
-17 -17 -18 -18 -18 -18 -18 -18 -18 -17 -17 -18 -18 -18 -18 -18 -18 -18 -18 -18 -18 -17 -17 -16 -15 -16 -17 -19 -21 -21 -20 -18 -14 -11 -10 -10 -10 -10 -9 -8 -8 -7 -7 -7 -9 -12 -16 -23 -30 -31 -33 -35
-16 -15 -16 -16 -16 -17 -17 -17 -17 -16 -16 -16 -17 -17 -17 -18 -18 -19 -19 -19 -18 -18 -18 -17 -17 -17 -18 -19 -20 -21 -24 -25 -22 -18 -13 -11 -10 -10 -9 -9 -10 -9 -8 -7 -8 -9 -11 -15 -20 -23 -24 -26
-15 -15 -15 -16 -16 -16 -16 -15 -15 -15 -16 -16 -16 -17 -17 -17 -18 -18 -19 -19 -19 -19 -19 -19 -19 -18 -19 -19 -19 -20 -21 -22 -23 -23 -20 -14 -12 -11 -10 -10 -11 -11 -10 -8 -8 -8 -8 -10 -12 -14 -17 -20
-15 -15 -15 -15 -15 -15 -15 -15 -15 -15 -16 -16 -17 -17 -17 -17 -17 -18 -18 -19 -19 -20 -20 -20 -20 -19 -19 -20 -20 -21 -20 -19 -18 -19 -21 -18 -14 -12 -11 -10 -10 -10 -9 -9 -8 -8 -8 -9 -9 -10 -13 -15
-17 -16 -16 -16 -16 -15 -15 -15 -15 -16 -16 -17 -17 -17 -17 -17 -17 -18 -18 -19 -19 -20 -20 -20 -20 -20 -20 -20 -20 -20 -19 -17 -16 -16 -18 -18 -15 -12 -11 -10 -10 -9 -9 -9 -8 -8 -8 -9 -9 -9 -11 -11
-19 -18 -19 -19 -18 -17 -16 -16 -16 -16 -17 -17 -17 -18 -18 -18 -18 -18 -18 -19 -19 -20 -20 -20 -20 -20 -20 -20 -19 -18 -17 -16 -15 -15 -16 -16 -16 -13 -11 -11 -10 -9 -9 -9 -9 -8 -8 -9 -9 -9 -10 -10
-20 -20 -20 -20 -20 -19 -18 -18 -18 -18 -18 -18 -18 -18 -18 -18 -18 -19 -19 -19 -19 -19 -19 -19 -19 -19 -19 -19 -18 -17 -17 -17 -16 -15 -15 -16 -16 -14 -13 -11 -10 -10 -10 -9 -9 -9 -9 -8 -8 -9 -8 -9

ECMWFFLT2_850_dewp_039.txt.gz
Dewpoint
-14 -15 -17 -15 -14 -16 -17 -16 -16 -16 -13 -10 -7 -4 -1 1 2 3 4 4 5 5 5 5 5 6 6 7 7 8 8 8 8 8 8 8 8 8 7 7 8 8 8 8 9 9 9 8 7 7 6 5
-16 -17 -17 -17 -16 -16 -17 -17 -17 -18 -17 -16 -13 -10 -7 -4 -1 0 1 2 3 3 4 4 5 5 5 6 6 6 6 7 7 7 7 8 8 8 7 8 7 8 8 8 8 8 8 8 7 7 6 6
-17 -17 -17 -17 -17 -17 -18 -17 -17 -18 -18 -18 -17 -15 -13 -10 -7 -4 -2 -1 0 1 2 3 3 4 4 5 5 5 5 5 6 7 7 7 8 8 8 8 8 8 8 8 8 8 8 8 7 7 6 6
-16 -16 -16 -16 -16 -17 -17 -17 -17 -17 -18 -17 -17 -17 -17 -16 -13 -9 -7 -5 -3 -2 -1 0 1 1 2 3 4 4 4 4 5 6 7 7 7 7 8 8 8 8 8 8 8 8 8 8 8 7 6 6
-15 -15 -15 -15 -16 -16 -16 -16 -16 -16 -17 -17 -17 -16 -17 -18 -18 -16 -14 -11 -9 -7 -5 -3 -2 -1 -0 0 1 3 3 4 4 5 5 6 7 7 7 8 8 8 8 8 8 8 8 8 7 6 6 6
-15 -15 -15 -15 -15 -15 -15 -15 -15 -15 -16 -16 -16 -16 -16 -16 -18 -19 -19 -18 -15 -13 -11 -9 -6 -4 -2 -1 -1 0 1 2 3 4 4 5 5 6 7 7 8 8 8 8 8 8 8 8 7 6 7 7
-14 -14 -14 -15 -15 -15 -15 -14 -15 -15 -15 -15 -15 -15 -16 -16 -17 -18 -19 -20 -20 -18 -17 -15 -12 -9 -6 -4 -2 -2 -1 -0 0 1 3 3 3 4 6 7 7 7 8 7 8 8 8 7 6 6 7 7
-12 -13 -13 -13 -14 -14 -15 -15 -14 -14 -14 -14 -15 -15 -15 -16 -16 -16 -18 -19 -21 -21 -20 -19 -17 -15 -13 -9 -6 -4 -3 -2 -2 -1 -0 2 2 2 3 6 6 6 7 7 7 7 7 7 7 6 7 7
-12 -12 -12 -13 -13 -14 -14 -14 -15 -15 -14 -14 -15 -15 -15 -15 -15 -15 -16 -17 -18 -20 -20 -21 -21 -20 -18 -15 -12 -9 -7 -4 -2 -2 -2 -1 0 0 0 3 5 6 6 7 7 7 7 7 7 7 7 7
-12 -12 -12 -12 -13 -14 -14 -14 -15 -15 -15 -15 -15 -15 -15 -15 -15 -15 -15 -15 -16 -17 -18 -19 -21 -22 -22 -20 -17 -15 -13 -10 -7 -4 -2 -2 -1 -1 -1 -0 1 3 5 6 6 7 7 7 7 7 7 7
-15 -14 -14 -14 -14 -15 -17 -17 -17 -17 -17 -17 -17 -16 -15 -15 -15 -15 -15 -15 -15 -15 -16 -17 -18 -20 -22 -23 -23 -20 -18 -15 -13 -10 -6 -3 -2 -2 -1 -2 -2 -1 0 3 5 6 6 7 7 7 7 7
-18 -18 -18 -19 -19 -19 -21 -22 -22 -21 -20 -20 -19 -18 -17 -16 -15 -15 -15 -15 -15 -15 -15 -15 -16 -17 -19 -21 -23 -24 -22 -18 -14 -13 -12 -8 -5 -3 -2 -2 -3 -3 -3 -2 1 5 5 6 6 6 7 7
-20 -21 -21 -22 -23 -24 -25 -26 -25 -24 -23 -22 -21 -20 -19 -18 -17 -16 -15 -15 -15 -16 -16 -16 -15 -16 -17 -19 -22 -23 -24 -22 -17 -14 -13 -13 -10 -7 -4 -3 -2 -2 -3 -4 -3 -0 2 4 5 5 5 6
-19 -20 -21 -21 -23 -24 -25 -25 -25 -25 -24 -23 -23 -22 -21 -20 -20 -19 -18 -16 -16 -17 -17 -18 -17 -17 -16 -18 -21 -22 -23 -23 -22 -18 -15 -14 -13 -11 -8 -6 -4 -2 -1 -2 -4 -3 -2 -0 1 3 4 5
-18 -18 -19 -20 -21 -22 -22 -23 -23 -23 -23 -23 -22 -22 -22 -22 -22 -21 -20 -20 -19 -18 -18 -19 -19 -20 -19 -19 -20 -21 -23 -23 -23 -23 -19 -18 -16 -13 -10 -9 -6 -4 -3 -2 -3 -3 -3 -4 -3 -1 2 4
-17 -17 -18 -19 -20 -20 -21 -20 -21 -21 -21 -21 -20 -20 -20 -21 -22 -22 -22 -22 -21 -21 -20 -20 -21 -22 -23 -22 -22 -21 -22 -22 -22 -23 -22 -22 -23 -18 -12 -10 -8 -6 -5 -3 -3 -3 -3 -4 -4 -5 -3 1
-17 -18 -19 -20 -20 -20 -20 -19 -20 -20 -19 -19 -18 -18 -18 -19 -20 -21 -21 -22 -23 -23 -23 -22 -22 -23 -24 -25 -24 -22 -22 -22 -22 -23 -24 -24 -25 -23 -17 -13 -10 -8 -6 -4 -4 -4 -4 -4 -4 -6 -6 -3
-18 -19 -20 -20 -20 -19 -19 -19 -19 -20 -19 -19 -18 -17 -17 -18 -18 -19 -20 -21 -22 -23 -23 -24 -24 -24 -25 -26 -26 -21 -19 -21 -22 -22 -24 -25 -24 -25 -25 -19 -13 -10 -8 -6 -4 -4 -5 -5 -5 -5 -6 -6
-19 -19 -19 -19 -19 -19 -19 -19 -19 -19 -19 -19 -18 -17 -17 -17 -18 -18 -19 -19 -19 -21 -22 -23 -24 -25 -26 -26 -27 -24 -20 -18 -19 -20 -21 -22 -23 -24 -26 -22 -16 -12 -9 -8 -6 -4 -4 -6 -6 -5 -6 -8
-20 -19 -19 -18 -18 -18 -18 -19 -19 -19 -19 -19 -18 -17 -17 -17 -17 -18 -18 -18 -18 -20 -21 -20 -21 -23 -24 -25 -27 -27 -22 -17 -15 -16 -18 -19 -18 -18 -20 -19 -16 -14 -11 -10 -9 -7 -5 -4 -5 -6 -5 -7
-19 -19 -19 -18 -18 -18 -18 -18 -19 -19 -19 -18 -18 -17 -17 -17 -18 -18 -18 -18 -19 -20 -19 -19 -19 -19 -21 -23 -25 -26 -24 -18 -14 -13 -14 -15 -15 -14 -15 -16 -15 -13 -11 -9 -10 -10 -8 -5 -4 -5 -6 -6
-20 -20 -20 -19 -19 -18 -18 -17 -18 -19 -18 -18 -18 -18 -18 -18 -18 -18 -18 -18 -19 -19 -18 -18 -18 -18 -19 -19 -20 -22 -23 -20 -15 -12 -11 -12 -14 -13 -13 -14 -14 -13 -10 -8 -9 -11 -12 -9 -5 -3 -5 -7
-19 -19 -20 -20 -20 -19 -19 -17 -17 -17 -17 -17 -17 -18 -18 -18 -17 -17 -18 -18 -19 -18 -17 -18 -18 -18 -18 -18 -18 -19 -21 -22 -20 -17 -13 -11 -12 -13 -12 -12 -13 -12 -11 -10 -10 -12 -15 -15 -11 -6 -4 -5
-17 -17 -17 -17 -18 -18 -18 -17 -16 -15 -16 -16 -17 -17 -17 -17 -17 -17 -17 -18 -18 -18 -18 -19 -19 -19 -19 -19 -19 -19 -20 -22 -24 -25 -23 -18 -14 -12 -12 -12 -11 -11 -11 -11 -12 -14 -18 -21 -19 -14 -8 -6
-16 -16 -16 -16 -16 -16 -16 -16 -16 -15 -15 -15 -16 -16 -17 -17 -17 -17 -17 -18 -18 -18 -18 -19 -19 -19 -19 -20 -20 -20 -21 -22 -24 -26 -30 -31 -23 -16 -13 -12 -11 -11 -10 -9 -10 -12 -14 -17 -20 -19 -16 -11
-17 -17 -17 -16 -16 -16 -16 -16 -16 -15 -15 -15 -15 -16 -16 -16 -16 -16 -17 -18 -18 -18 -18 -18 -19 -19 -19 -20 -20 -20 -20 -21 -23 -25 -27 -31 -32 -25 -19 -15 -12 -11 -11 -10 -10 -10 -10 -12 -17 -20 -21 -20
-17 -17 -17 -16 -16 -17 -17 -17 -18 -17 -16 -15 -15 -15 -16 -16 -16 -17 -17 -18 -18 -18 -18 -18 -18 -19 -19 -20 -20 -20 -21 -20 -21 -22 -23 -22 -22 -23 -24 -23 -18 -13 -11 -11 -11 -10 -9 -10 -12 -16 -20 -23
-17 -17 -17 -17 -17 -18 -19 -20 -21 -20 -18 -17 -16 -16 -16 -16 -17 -17 -17 -18 -18 -18 -18 -18 -18 -19 -19 -20 -20 -20 -20 -20 -20 -20 -19 -17 -17 -17 -18 -22 -23 -18 -13 -11 -11 -10 -10 -9 -9 -10 -14 -16
-17 -17 -18 -19 -19 -20 -21 -21 -21 -20 -19 -19 -18 -17 -17 -17 -17 -17 -18 -18 -19 -19 -19 -19 -19 -19 -20 -20 -20 -20 -19 -19 -19 -19 -18 -16 -16 -16 -16 -17 -18 -19 -16 -12 -11 -10 -9 -9 -8 -8 -9 -10
-19 -19 -20 -20 -20 -21 -20 -19 -18 -19 -19 -19 -19 -19 -19 -19 -19 -19 -19 -19 -19 -19 -19 -19 -19 -20 -20 -19 -19 -19 -19 -19 -18 -18 -18 -17 -16 -16 -16 -15 -16 -17 -16 -13 -11 -10 -9 -9 -8 -8 -8 -8
-21 -21 -21 -20 -21 -20 -18 -17 -18 -19 -19 -19 -19 -19 -20 -20 -20 -20 -20 -20 -20 -20 -20 -20 -20 -20 -20 -20 -20 -19 -19 -19 -19 -18 -18 -17 -17 -18 -18 -16 -15 -15 -15 -14 -13 -11 -10 -9 -9 -8 -8 -8

ECMWFFLT2_850_dewp_042.txt.gz
Dewpoint
-15 -15 -15 -16 -16 -15 -15 -15 -14 -14 -15 -16 -16 -13 -10 -7 -4 -2 -3 -3 -1 2 3 3 3 3 4 5 5 5 6 6 6 7 7 7 8 8 8 8 8 8 9 9 9 9 9 9 8 7 7 6
-15 -15 -15 -15 -15 -15 -15 -15 -14 -14 -14 -14 -16 -16 -15 -13 -10 -7 -5 -5 -4 -2 0 1 2 2 2 3 4 4 5 5 5 6 7 7 7 8 8 8 8 8 8 9 9 9 8 8 8 8 7 6
-15 -14 -14 -14 -14 -15 -15 -15 -15 -14 -14 -14 -14 -15 -15 -15 -15 -14 -11 -9 -8 -5 -3 -1 -0 0 1 2 3 4 4 4 4 5 6 6 7 7 8 8 8 8 8 8 9 8 8 8 8 8 7 6
-14 -14 -14 -14 -14 -14 -14 -14 -14 -14 -14 -14 -14 -14 -15 -15 -15 -16 -15 -14 -12 -11 -9 -6 -3 -2 -1 1 2 2 2 3 3 4 5 6 6 7 7 8 8 8 8 8 8 9 8 7 8 7 7 7
-14 -13 -13 -13 -13 -13 -13 -13 -13 -13 -14 -14 -14 -13 -14 -14 -15 -15 -15 -16 -16 -16 -16 -14 -10 -8 -5 -2 -1 -0 1 1 1 2 3 4 5 6 6 7 8 8 8 8 8 8 8 7 7 7 6 6
-16 -15 -14 -13 -13 -12 -12 -12 -12 -12 -12 -13 -14 -13 -13 -13 -14 -14 -14 -15 -16 -16 -18 -19 -18 -16 -13 -9 -5 -3 -1 -0 -0 1 2 3 4 5 5 6 7 8 8 8 8 8 8 8 7 6 6 6
-18 -18 -18 -17 -15 -14 -12 -12 -11 -11 -11 -12 -13 -14 -14 -13 -13 -13 -14 -14 -14 -15 -16 -17 -18 -19 -20 -18 -14 -9 -5 -3 -2 -1 -0 1 2 3 4 5 6 7 7 8 8 8 8 7 6 6 6 6
-20 -21 -21 -21 -19 -17 -15 -13 -12 -11 -11 -11 -13 -14 -14 -14 -14 -13 -13 -13 -14 -14 -15 -15 -16 -17 -19 -21 -20 -18 -13 -8 -5 -2 -2 -1 0 1 3 4 5 5 6 7 7 7 7 7 6 5 5 5
-21 -21 -22 -22 -21 -20 -20 -18 -17 -15 -14 -13 -13 -13 -14 -15 -16 -15 -14 -13 -13 -14 -14 -14 -15 -15 -16 -18 -19 -21 -21 -16 -11 -7 -5 -2 -1 -0 1 2 4 4 5 5 6 6 7 7 7 6 4 5
-19 -19 -20 -20 -21 -21 -22 -23 -23 -22 -21 -19 -17 -17 -16 -16 -17 -16 -15 -14 -14 -13 -14 -14 -14 -14 -15 -15 -17 -18 -21 -22 -18 -13 -9 -6 -3 -1 -0 0 2 3 3 3 4 4 5 6 7 6 5 4
-17 -18 -19 -19 -19 -20 -21 -23 -25 -25 -26 -26 -24 -23 -22 -20 -19 -18 -17 -16 -15 -14 -14 -14 -14 -14 -14 -15 -15 -16 -17 -20 -22 -19 -14 -10 -8 -5 -3 -1 0 1 1 2 2 2 3 4 6 6 6 5
-16 -17 -18 -18 -19 -20 -21 -22 -23 -23 -23 -24 -25 -25 -24 -23 -22 -20 -19 -17 -16 -16 -15 -15 -15 -14 -14 -15 -15 -16 -16 -17 -19 -21 -20 -14 -11 -9 -7 -4 -1 -0 0 1 1 1 1 2 4 5 5 5
-15 -17 -17 -17 -18 -19 -20 -21 -21 -21 -21 -21 -22 -23 -23 -22 -21 -21 -21 -19 -18 -17 -17 -16 -16 -15 -15 -15 -15 -16 -16 -16 -17 -18 -21 -20 -16 -12 -10 -9 -5 -2 -1 -1 0 1 0 -0 1 3 4 5
-16 -17 -16 -16 -17 -18 -20 -21 -20 -20 -19 -20 -20 -21 -22 -22 -21 -21 -21 -21 -21 -20 -19 -19 -18 -18 -17 -17 -16 -16 -17 -17 -17 -17 -18 -21 -21 -16 -14 -12 -10 -6 -3 -2 -1 -0 1 1 -0 0 1 3
-18 -18 -17 -17 -18 -19 -20 -20 -19 -19 -19 -19 -20 -20 -20 -21 -20 -20 -20 -21 -21 -21 -21 -21 -20 -20 -20 -19 -18 -18 -18 -18 -18 -18 -18 -19 -21 -21 -18 -15 -13 -11 -7 -5 -4 -2 0 1 1 -0 -1 1
-19 -19 -19 -19 -19 -20 -21 -20 -18 -18 -18 -18 -19 -19 -19 -19 -19 -19 -19 -20 -20 -21 -21 -22 -22 -22 -22 -22 -21 -20 -20 -21 -20 -20 -19 -19 -21 -22 -23 -21 -19 -15 -11 -8 -7 -5 -2 0 1 1 -0 -2
-20 -20 -19 -20 -20 -20 -20 -20 -19 -18 -18 -18 -18 -19 -19 -18 -18 -18 -18 -19 -20 -20 -21 -22 -22 -22 -22 -22 -22 -23 -23 -23 -21 -20 -20 -20 -20 -21 -23 -24 -24 -22 -16 -11 -9 -8 -6 -3 -0 1 1 -1
-20 -20 -20 -20 -20 -20 -20 -20 -19 -19 -18 -18 -18 -18 -18 -17 -17 -17 -17 -18 -18 -19 -20 -21 -22 -23 -23 -22 -22 -23 -24 -24 -22 -20 -19 -19 -20 -21 -21 -23 -25 -25 -22 -16 -11 -9 -8 -6 -3 -1 1 1
-20 -20 -20 -20 -20 -20 -19 -19 -19 -19 -19 -18 -18 -17 -17 -17 -17 -17 -18 -18 -18 -18 -19 -19 -21 -22 -22 -22 -22 -22 -22 -23 -23 -21 -18 -17 -17 -19 -20 -22 -23 -24 -24 -22 -16 -11 -9 -8 -6 -4 -1 0
-21 -20 -20 -20 -20 -21 -20 -19 -18 -18 -18 -18 -17 -17 -17 -17 -17 -18 -18 -18 -18 -18 -18 -19 -19 -20 -21 -22 -22 -21 -21 -22 -23 -22 -20 -17 -15 -15 -17 -18 -21 -21 -20 -22 -22 -16 -12 -10 -8 -7 -4 -2
-20 -19 -19 -20 -20 -21 -21 -20 -19 -18 -17 -17 -17 -17 -17 -17 -17 -17 -17 -17 -18 -17 -18 -18 -18 -20 -21 -22 -22 -22 -21 -21 -21 -22 -22 -20 -17 -14 -14 -15 -17 -19 -18 -18 -21 -22 -17 -13 -10 -9 -7 -5
-20 -20 -20 -20 -20 -20 -20 -20 -19 -18 -17 -17 -16 -16 -16 -16 -16 -16 -16 -17 -17 -17 -17 -18 -18 -19 -20 -21 -21 -21 -21 -21 -21 -22 -22 -23 -22 -19 -16 -15 -14 -15 -17 -17 -18 -21 -22 -19 -14 -11 -9 -8
-20 -21 -21 -21 -20 -20 -19 -19 -18 -18 -17 -16 -16 -16 -16 -16 -16 -16 -16 -17 -17 -17 -17 -18 -18 -19 -19 -19 -19 -20 -20 -21 -21 -22 -23 -24 -25 -25 -24 -21 -16 -14 -14 -15 -17 -18 -20 -21 -19 -15 -12 -10
-20 -21 -20 -20 -20 -20 -19 -19 -19 -19 -18 -17 -15 -15 -15 -16 -16 -16 -16 -16 -17 -17 -17 -17 -18 -18 -18 -19 -20 -20 -19 -19 -20 -21 -22 -23 -24 -26 -27 -28 -25 -19 -15 -14 -15 -17 -18 -19 -20 -20 -17 -14
-21 -21 -20 -20 -19 -19 -19 -19 -20 -20 -20 -19 -17 -16 -16 -16 -15 -16 -16 -16 -16 -17 -17 -17 -17 -18 -18 -19 -20 -20 -19 -19 -19 -19 -20 -21 -23 -25 -26 -28 -30 -29 -22 -17 -15 -16 -18 -20 -20 -20 -21 -21
-21 -20 -20 -20 -19 -19 -19 -20 -19 -20 -20 -20 -19 -19 -18 -17 -15 -15 -16 -16 -16 -16 -17 -17 -17 -18 -18 -19 -19 -19 -19 -19 -19 -19 -19 -20 -21 -24 -25 -24 -23 -25 -26 -20 -17 -16 -16 -19 -21 -21 -21 -20
-21 -20 -20 -20 -20 -20 -21 -21 -20 -20 -20 -20 -20 -20 -19 -18 -17 -16 -15 -16 -16 -16 -17 -17 -17 -18 -18 -18 -19 -19 -19 -19 -19 -19 -19 -20 -21 -22 -22 -22 -20 -21 -21 -19 -18 -16 -15 -14 -13 -16 -20 -19
-21 -21 -21 -21 -21 -22 -22 -22 -22 -21 -21 -20 -20 -20 -20 -20 -19 -17 -16 -16 -16 -16 -17 -17 -18 -18 -19 -20 -20 -20 -20 -20 -20 -20 -20 -20 -21 -20 -20 -21 -21 -20 -19 -18 -17 -16 -14 -12 -10 -11 -15 -16
-22 -22 -22 -22 -22 -23 -23 -23 -22 -21 -21 -20 -20 -20 -20 -21 -20 -20 -19 -18 -18 -18 -18 -19 -20 -20 -20 -21 -21 -20 -20 -20 -20 -20 -20 -20 -19 -19 -19 -20 -20 -20 -20 -18 -18 -15 -14 -12 -11 -10 -10 -11
-23 -23 -23 -22 -22 -22 -23 -23 -22 -21 -21 -22 -21 -21 -21 -21 -21 -21 -21 -21 -21 -21 -22 -22 -22 -22 -22 -22 -21 -21 -21 -21 -20 -20 -20 -19 -19 -19 -19 -19 -19 -20 -20 -19 -19 -17 -15 -13 -11 -10 -10 -9
-22 -22 -22 -22 -22 -22 -22 -23 -22 -22 -22 -23 -23 -23 -23 -23 -23 -23 -23 -23 -23 -23 -23 -23 -23 -23 -23 -22 -22 -21 -21 -21 -20 -20 -20 -19 -19 -19 -19 -19 -19 -20 -20 -20 -22 -21 -17 -15 -13 -12 -10 -9

ECMWFFLT2_850_dewp_045.txt.gz
Dewpoint
-15 -15 -15 -15 -15 -14 -14 -13 -13 -13 -13 -13 -13 -13 -12 -10 -8 -7 -8 -7 -5 -3 -2 -1 -0 0 -0 -1 -0 1 2 3 4 5 5 6 7 8 8 8 9 9 9 9 9 9 10 9 8 7 7 7
-15 -15 -15 -15 -15 -14 -14 -14 -13 -13 -13 -12 -12 -12 -13 -12 -10 -8 -8 -9 -8 -6 -5 -4 -3 -2 -1 -1 -1 -0 0 1 3 4 4 5 5 7 7 7 8 8 9 9 9 9 9 8 7 7 6 6
-16 -15 -16 -16 -16 -16 -15 -15 -15 -14 -14 -13 -12 -12 -12 -12 -12 -10 -8 -9 -9 -8 -7 -7 -6 -5 -4 -2 -1 -1 0 0 0 2 2 3 4 5 6 6 7 8 8 9 9 9 9 9 8 7 6 6
-18 -17 -17 -17 -17 -18 -18 -18 -17 -17 -16 -15 -14 -13 -12 -12 -12 -12 -10 -9 -9 -9 -8 -8 -8 -8 -7 -6 -4 -2 -0 0 -0 -0 1 2 2 3 5 6 6 7 7 8 9 9 9 8 8 8 7 6
-21 -21 -20 -20 -20 -20 -20 -20 -19 -19 -18 -17 -17 -16 -15 -13 -12 -12 -12 -10 -9 -10 -10 -9 -9 -9 -9 -9 -8 -6 -3 -1 -0 -1 -1 1 1 2 3 4 5 6 6 7 8 8 9 8 8 8 8 6
-24 -24 -23 -23 -22 -22 -22 -21 -21 -21 -20 -20 -19 -19 -18 -16 -14 -13 -12 -12 -11 -10 -11 -10 -10 -10 -10 -10 -10 -9 -7 -4 -2 -1 -1 -0 0 0 1 3 4 4 5 5 6 7 7 8 8 7 7 6
-25 -24 -23 -22 -22 -22 -22 -22 -22 -22 -21 -22 -21 -22 -22 -21 -20 -17 -14 -13 -13 -12 -12 -12 -11 -10 -10 -11 -11 -11 -10 -9 -6 -4 -3 -1 -0 0 1 1 2 3 4 4 5 6 7 7 8 7 6 6
-25 -23 -21 -20 -20 -21 -21 -21 -21 -22 -22 -23 -23 -24 -24 -25 -24 -22 -20 -17 -15 -15 -13 -13 -13 -11 -11 -11 -12 -12 -11 -11 -10 -9 -7 -4 -2 -1 0 1 1 1 2 3 3 4 6 7 7 6 7 7
-24 -23 -21 -20 -20 -20 -20 -21 -22 -22 -22 -23 -24 -24 -24 -24 -24 -24 -24 -21 -20 -18 -16 -15 -14 -14 -12 -11 -12 -12 -12 -12 -12 -12 -12 -10 -7 -4 -1 0 1 1 0 1 2 3 4 5 6 6 7 6
-22 -21 -21 -21 -20 -20 -21 -21 -22 -21 -22 -22 -23 -24 -23 -23 -23 -23 -23 -23 -22 -21 -21 -19 -17 -15 -14 -13 -13 -13 -13 -13 -14 -14 -14 -15 -13 -9 -5 -2 -0 1 -0 -1 0 1 2 3 4 5 6 6
-20 -19 -19 -20 -20 -20 -20 -20 -20 -20 -21 -21 -22 -23 -23 -22 -22 -22 -22 -22 -22 -22 -22 -21 -20 -18 -17 -15 -14 -14 -14 -14 -15 -15 -14 -15 -17 -15 -10 -5 -3 -1 -0 -1 -1 -0 0 1 2 4 5 5
-19 -19 -19 -19 -19 -20 -20 -20 -20 -20 -20 -20 -21 -22 -22 -21 -20 -21 -21 -22 -21 -21 -21 -21 -21 -20 -19 -18 -17 -16 -15 -15 -15 -16 -15 -15 -16 -18 -16 -10 -6 -4 -2 -1 -1 -0 -0 0 1 2 3 4
-19 -19 -19 -19 -19 -19 -19 -20 -20 -20 -20 -20 -20 -22 -22 -20 -20 -20 -20 -20 -21 -21 -21 -21 -21 -21 -21 -20 -19 -18 -17 -17 -16 -16 -16 -16 -15 -17 -19 -17 -12 -8 -5 -4 -3 -1 -0 -0 0 1 2 3
-19 -19 -19 -19 -19 -19 -19 -19 -20 -20 -20 -20 -20 -21 -22 -20 -19 -19 -19 -18 -19 -20 -21 -21 -21 -21 -21 -21 -21 -20 -19 -18 -17 -17 -17 -17 -16 -16 -17 -19 -18 -15 -10 -7 -6 -4 -2 -1 -0 0 1 2
-19 -20 -20 -20 -20 -20 -20 -20 -20 -20 -19 -20 -20 -21 -21 -20 -18 -18 -18 -17 -18 -18 -20 -21 -21 -21 -22 -22 -22 -21 -21 -20 -19 -19 -18 -18 -17 -17 -17 -17 -19 -20 -18 -13 -10 -8 -5 -3 -1 -0 1 1
-20 -20 -20 -20 -21 -21 -21 -21 -20 -20 -19 -19 -20 -20 -21 -20 -19 -17 -17 -17 -17 -18 -18 -19 -20 -21 -22 -22 -22 -22 -22 -21 -21 -20 -20 -20 -19 -19 -18 -18 -19 -20 -21 -21 -17 -13 -9 -7 -4 -2 -0 1
-20 -20 -21 -21 -21 -21 -21 -20 -20 -20 -20 -19 -19 -19 -20 -20 -19 -17 -17 -17 -17 -18 -18 -18 -19 -20 -21 -22 -22 -23 -23 -23 -22 -21 -21 -21 -20 -20 -19 -18 -18 -19 -20 -21 -22 -19 -15 -11 -8 -4 -2 -1
-20 -21 -21 -21 -21 -21 -20 -20 -19 -20 -20 -20 -19 -18 -19 -19 -18 -17 -17 -18 -18 -18 -18 -18 -18 -18 -19 -20 -21 -22 -24 -24 -24 -23 -22 -21 -21 -20 -20 -19 -18 -18 -19 -19 -21 -22 -20 -15 -12 -9 -5 -3
-21 -21 -21 -21 -20 -20 -20 -20 -20 -20 -21 -20 -19 -18 -18 -18 -17 -17 -17 -18 -18 -18 -18 -17 -18 -18 -18 -18 -19 -20 -22 -24 -26 -26 -25 -23 -22 -21 -21 -20 -19 -18 -18 -18 -19 -20 -21 -20 -16 -12 -9 -7
-22 -21 -21 -20 -19 -20 -20 -21 -21 -21 -21 -20 -18 -17 -17 -17 -17 -17 -17 -17 -17 -17 -17 -17 -17 -17 -18 -18 -18 -19 -20 -22 -24 -26 -26 -25 -24 -23 -22 -21 -20 -19 -18 -18 -18 -18 -20 -22 -21 -17 -13 -10
-21 -20 -20 -20 -20 -20 -21 -21 -22 -22 -21 -19 -18 -16 -16 -16 -17 -17 -17 -17 -17 -17 -17 -17 -17 -17 -17 -17 -18 -18 -19 -20 -21 -23 -24 -25 -25 -24 -23 -23 -22 -21 -20 -19 -18 -18 -18 -19 -21 -21 -18 -13
-20 -20 -20 -21 -21 -21 -21 -21 -22 -22 -21 -20 -19 -17 -16 -16 -16 -16 -16 -17 -16 -17 -17 -17 -17 -17 -17 -17 -17 -18 -18 -18 -19 -21 -22 -22 -23 -24 -24 -24 -23 -23 -22 -21 -19 -18 -18 -18 -19 -21 -21 -19
-21 -21 -21 -21 -22 -22 -21 -22 -22 -22 -22 -22 -21 -19 -19 -18 -17 -16 -16 -16 -16 -16 -16 -16 -17 -17 -17 -17 -17 -17 -17 -18 -18 -19 -20 -20 -21 -22 -23 -24 -24 -23 -24 -24 -22 -20 -18 -18 -18 -19 -20 -21
-21 -22 -22 -21 -21 -21 -22 -22 -22 -23 -22 -23 -22 -22 -21 -20 -19 -18 -16 -16 -16 -16 -16 -16 -16 -16 -16 -16 -17 -17 -17 -17 -18 -18 -19 -19 -20 -20 -22 -23 -23 -24 -25 -25 -24 -23 -20 -19 -18 -19 -19 -20
-22 -22 -21 -21 -22 -22 -22 -22 -23 -23 -23 -23 -23 -22 -22 -21 -20 -19 -18 -17 -16 -16 -16 -16 -16 -16 -16 -16 -16 -16 -17 -17 -17 -18 -18 -18 -18 -19 -21 -23 -23 -23 -24 -25 -25 -24 -22 -20 -19 -19 -19 -19
-22 -21 -22 -22 -22 -23 -23 -23 -23 -23 -23 -23 -23 -22 -21 -21 -20 -20 -20 -18 -17 -17 -16 -16 -16 -16 -16 -16 -16 -16 -16 -16 -17 -17 -17 -18 -19 -20 -22 -22 -22 -23 -23 -24 -24 -23 -23 -22 -21 -20 -20 -19
-22 -22 -22 -22 -22 -23 -23 -23 -23 -23 -23 -23 -23 -22 -21 -21 -20 -20 -20 -20 -19 -19 -18 -17 -17 -16 -16 -16 -16 -16 -16 -17 -17 -18 -19 -20 -21 -21 -22 -22 -22 -22 -22 -23 -23 -23 -22 -20 -19 -19 -19 -18
-21 -22 -22 -22 -22 -23 -23 -23 -23 -23 -23 -23 -23 -22 -22 -21 -20 -20 -20 -20 -20 -20 -20 -19 -19 -19 -18 -18 -18 -18 -19 -19 -20 -21 -22 -22 -22 -22 -22 -22 -22 -22 -22 -21 -22 -21 -19 -18 -18 -18 -18 -17
-21 -22 -22 -22 -22 -22 -23 -23 -23 -23 -23 -23 -23 -23 -23 -22 -22 -21 -21 -21 -21 -21 -21 -21 -21 -21 -21 -21 -22 -22 -22 -23 -23 -23 -23 -22 -22 -21 -20 -20 -20 -21 -21 -21 -21 -20 -19 -17 -16 -15 -15 -16
-21 -21 -21 -22 -22 -22 -23 -23 -23 -23 -23 -23 -23 -23 -23 -23 -23 -23 -22 -22 -22 -22 -22 -23 -23 -23 -23 -23 -23 -23 -23 -23 -23 -23 -23 -21 -20 -20 -19 -19 -19 -20 -21 -21 -20 -20 -20 -18 -15 -14 -14 -14
-21 -21 -21 -22 -22 -22 -23 -23 -23 -22 -22 -22 -22 -22 -22 -22 -22 -22 -23 -23 -23 -23 -23 -23 -23 -23 -23 -23 -22 -22 -22 -22 -23 -22 -22 -21 -20 -19 -18 -18 -18 -18 -19 -20 -20 -20 -20 -20 -19 -18 -16 -14

ECMWFFLT2_850_dewp_048.txt.gz
Dewpoint
-17 -17 -17 -18 -18 -17 -17 -17 -17 -17 -17 -17 -17 -17 -18 -19 -18 -17 -16 -13 -12 -10 -9 -7 -5 -4 -3 -3 -3 -2 -1 -0 0 1 1 1 0 1 3 5 6 7 8 9 9 10 9 9 8 7 8 9
-19 -19 -20 -21 -21 -21 -21 -20 -20 -19 -19 -19 -19 -19 -19 -19 -20 -20 -18 -17 -14 -12 -11 -9 -7 -5 -4 -4 -4 -3 -2 -1 -1 0 1 1 0 -0 0 3 4 5 7 8 8 9 9 9 8 7 6 8
-23 -23 -25 -26 -26 -25 -25 -23 -23 -22 -21 -21 -21 -21 -21 -21 -21 -22 -21 -20 -18 -14 -12 -11 -9 -7 -5 -5 -5 -5 -4 -3 -2 -1 -0 0 1 0 -0 0 2 3 5 6 7 8 9 8 8 7 6 6
-28 -28 -29 -29 -30 -29 -27 -25 -24 -24 -23 -23 -23 -22 -22 -22 -22 -22 -22 -23 -22 -19 -15 -13 -11 -9 -7 -5 -5 -5 -5 -4 -4 -3 -2 -1 -0 0 0 -0 0 1 3 4 5 6 7 7 7 7 6 6
-29 -28 -28 -28 -29 -29 -28 -26 -25 -24 -24 -24 -23 -23 -23 -23 -23 -23 -23 -23 -23 -22 -20 -16 -14 -12 -9 -7 -6 -6 -6 -5 -5 -4 -3 -2 -1 -0 0 0 -0 -0 1 2 4 5 6 6 7 7 6 5
-28 -27 -26 -26 -27 -28 -27 -26 -26 -25 -24 -24 -23 -24 -24 -23 -23 -24 -24 -24 -24 -23 -23 -21 -19 -16 -13 -10 -8 -6 -6 -6 -6 -6 -5 -4 -3 -2 -0 0 0 0 0 1 2 3 4 5 6 6 6 5
-27 -26 -25 -25 -25 -25 -25 -24 -24 -24 -23 -23 -23 -23 -23 -23 -23 -22 -23 -24 -24 -23 -23 -23 -22 -21 -18 -14 -11 -9 -7 -6 -6 -6 -6 -6 -5 -4 -2 -1 -0 -0 0 0 1 1 3 4 5 6 6 5
-26 -25 -24 -24 -24 -23 -23 -23 -23 -23 -22 -21 -21 -21 -21 -21 -21 -21 -21 -22 -24 -24 -23 -23 -23 -23 -22 -19 -15 -12 -9 -7 -6 -6 -6 -6 -6 -5 -4 -3 -1 -1 -1 -0 0 1 1 2 3 5 5 5
-26 -24 -24 -23 -22 -22 -22 -22 -22 -22 -21 -21 -20 -20 -20 -20 -20 -20 -21 -21 -22 -23 -23 -23 -23 -23 -22 -22 -20 -16 -13 -10 -8 -6 -6 -7 -7 -6 -6 -5 -4 -3 -3 -1 -0 1 1 1 1 3 4 5
-25 -23 -23 -22 -22 -21 -21 -21 -21 -21 -21 -21 -21 -21 -21 -21 -20 -20 -21 -21 -22 -22 -22 -22 -22 -23 -22 -22 -22 -20 -17 -14 -11 -8 -7 -7 -7 -7 -7 -7 -6 -6 -6 -4 -2 -0 1 1 1 1 2 3
-24 -23 -22 -21 -21 -21 -20 -21 -20 -20 -21 -21 -21 -21 -21 -21 -21 -21 -21 -21 -21 -21 -22 -22 -21 -22 -22 -22 -22 -22 -20 -18 -15 -12 -10 -8 -8 -7 -7 -7 -7 -8 -8 -7 -4 -2 -0 1 1 1 1 2
-24 -23 -22 -21 -20 -20 -20 -20 -20 -20 -21 -21 -21 -21 -21 -21 -21 -20 -20 -21 -21 -20 -20 -21 -21 -21 -22 -22 -22 -22 -22 -20 -18 -16 -13 -11 -9 -8 -8 -8 -7 -8 -9 -9 -7 -5 -2 -0 1 1 1 1
-24 -23 -22 -21 -21 -20 -20 -20 -20 -21 -21 -22 -22 -21 -21 -21 -20 -20 -20 -20 -20 -19 -19 -20 -20 -21 -22 -22 -21 -21 -22 -22 -21 -19 -17 -15 -13 -11 -9 -8 -8 -8 -8 -10 -10 -7 -5 -3 -1 1 1 1
-23 -23 -22 -21 -21 -21 -21 -21 -22 -22 -22 -22 -21 -21 -20 -20 -20 -20 -20 -19 -19 -19 -18 -19 -20 -20 -21 -21 -21 -21 -21 -21 -21 -21 -20 -19 -16 -14 -12 -10 -9 -8 -8 -9 -11 -10 -8 -6 -4 -1 1 1
-23 -22 -22 -21 -22 -22 -22 -22 -22 -22 -21 -21 -20 -20 -20 -20 -20 -20 -20 -19 -19 -19 -18 -19 -19 -20 -20 -20 -21 -21 -20 -21 -21 -21 -22 -22 -20 -18 -16 -13 -12 -10 -9 -8 -10 -11 -11 -9 -7 -4 -1 0
-24 -23 -22 -22 -22 -22 -22 -22 -21 -21 -21 -21 -21 -21 -21 -20 -20 -20 -20 -19 -18 -18 -18 -18 -18 -19 -19 -19 -20 -21 -20 -20 -20 -21 -21 -22 -23 -22 -20 -18 -15 -14 -12 -9 -9 -11 -12 -12 -11 -8 -5 -2
-25 -23 -23 -22 -22 -21 -21 -21 -21 -21 -21 -21 -22 -22 -22 -20 -19 -19 -19 -18 -18 -17 -17 -17 -18 -18 -19 -19 -19 -20 -20 -20 -19 -20 -21 -21 -23 -24 -23 -21 -19 -17 -16 -13 -10 -10 -12 -13 -13 -12 -9 -6
-25 -23 -22 -21 -21 -21 -21 -21 -21 -22 -22 -22 -22 -22 -22 -20 -18 -18 -18 -18 -17 -17 -17 -17 -17 -18 -18 -18 -18 -18 -19 -20 -19 -19 -20 -20 -21 -23 -24 -24 -23 -21 -19 -17 -13 -11 -11 -13 -13 -14 -13 -11
-24 -23 -22 -22 -22 -22 -22 -22 -22 -22 -22 -22 -22 -22 -22 -20 -18 -17 -17 -17 -17 -17 -17 -17 -17 -17 -18 -18 -18 -18 -18 -19 -19 -19 -19 -19 -19 -20 -23 -24 -24 -24 -22 -21 -18 -14 -11 -11 -12 -13 -14 -15
-24 -23 -22 -22 -22 -22 -22 -22 -21 -21 -22 -22 -22 -22 -22 -21 -19 -17 -17 -17 -17 -17 -17 -17 -17 -17 -17 -17 -17 -17 -17 -18 -18 -19 -18 -18 -19 -19 -20 -22 -23 -23 -23 -23 -22 -19 -15 -12 -11 -11 -12 -14
-23 -23 -22 -22 -22 -22 -21 -21 -22 -22 -22 -22 -22 -22 -22 -22 -21 -19 -17 -16 -16 -16 -16 -17 -17 -17 -17 -17 -17 -17 -17 -17 -17 -18 -18 -18 -18 -18 -19 -20 -21 -22 -23 -24 -24 -23 -20 -16 -13 -11 -11 -12
-23 -22 -22 -22 -21 -21 -21 -22 -22 -22 -22 -22 -22 -23 -23 -22 -22 -21 -19 -18 -17 -16 -16 -16 -16 -17 -17 -17 -17 -17 -17 -17 -16 -17 -17 -18 -18 -18 -18 -19 -20 -21 -22 -23 -24 -25 -24 -21 -17 -13 -11 -11
-23 -22 -22 -22 -22 -21 -21 -22 -22 -22 -22 -23 -23 -23 -23 -23 -23 -22 -21 -20 -18 -17 -17 -16 -16 -16 -16 -16 -16 -16 -16 -16 -16 -16 -16 -17 -18 -19 -19 -19 -19 -20 -22 -23 -24 -25 -26 -26 -22 -18 -14 -12
-23 -22 -22 -22 -21 -21 -22 -22 -22 -22 -22 -23 -23 -23 -23 -23 -23 -23 -23 -22 -21 -20 -19 -18 -17 -16 -16 -16 -16 -16 -16 -16 -16 -16 -16 -16 -18 -20 -21 -21 -21 -21 -22 -23 -23 -24 -26 -27 -27 -23 -19 -16
-23 -22 -22 -22 -21 -21 -22 -22 -22 -23 -23 -23 -23 -23 -23 -23 -23 -23 -23 -22 -22 -21 -20 -20 -19 -18 -17 -16 -16 -16 -16 -16 -16 -17 -17 -18 -19 -21 -22 -22 -22 -22 -23 -23 -24 -24 -25 -27 -28 -27 -24 -20
-23 -22 -22 -22 -21 -21 -21 -22 -22 -23 -23 -23 -23 -23 -23 -23 -23 -23 -23 -23 -22 -22 -21 -21 -21 -20 -19 -18 -17 -17 -17 -17 -18 -19 -20 -21 -22 -22 -23 -23 -23 -23 -23 -22 -22 -23 -24 -27 -27 -26 -23 -21
-23 -22 -22 -22 -21 -21 -21 -22 -22 -22 -23 -23 -23 -23 -23 -23 -23 -23 -23 -23 -23 -22 -22 -22 -21 -21 -20 -20 -19 -18 -19 -19 -20 -22 -22 -23 -23 -23 -23 -23 -23 -23 -22 -21 -21 -22 -22 -21 -21 -23 -23 -22
-23 -22 -22 -22 -21 -21 -21 -22 -22 -22 -22 -23 -23 -23 -23 -23 -23 -23 -23 -23 -23 -22 -22 -22 -21 -21 -21 -21 -21 -20 -21 -22 -23 -23 -23 -23 -23 -23 -23 -22 -22 -22 -22 -22 -21 -21 -20 -19 -22 -24 -22 -21
-23 -23 -22 -22 -22 -21 -21 -22 -22 -22 -22 -23 -23 -23 -23 -23 -23 -23 -23 -23 -23 -23 -23 -22 -22 -22 -22 -22 -22 -22 -23 -23 -23 -23 -23 -22 -22 -22 -22 -22 -21 -22 -22 -22 -21 -20 -19 -18 -19 -18 -16 -20
-23 -23 -23 -22 -22 -21 -21 -21 -22 -22 -22 -23 -23 -23 -23 -22 -22 -22 -22 -23 -23 -23 -23 -23 -23 -23 -23 -23 -23 -23 -22 -22 -22 -22 -22 -22 -22 -22 -22 -22 -21 -21 -20 -20 -20 -20 -18 -17 -16 -15 -16 -20
-23 -23 -23 -22 -22 -21 -21 -21 -22 -22 -22 -23 -23 -22 -22 -21 -21 -21 -21 -21 -22 -22 -22 -22 -22 -22 -22 -22 -22 -22 -21 -21 -21 -21 -21 -21 -22 -22 -22 -22 -21 -21 -20 -19 -19 -19 -18 -17 -16 -16 -16 -17

ECMWFFLT2_850_dewp_051.txt.gz
Dewpoint
-31 -31 -30 -30 -30 -30 -30 -30 -29 -30 -30 -30 -29 -29 -28 -26 -25 -25 -24 -24 -24 -23 -23 -22 -21 -19 -18 -16 -13 -9 -7 -5 -3 -3 -3 -2 -1 -0 -0 0 1 1 0 0 2 4 6 6 7 8 9 9
-30 -29 -29 -28 -28 -28 -28 -29 -29 -30 -30 -30 -30 -30 -30 -29 -28 -28 -26 -26 -25 -24 -24 -24 -23 -22 -20 -18 -16 -12 -9 -7 -5 -5 -4 -3 -2 -1 -1 0 1 1 1 0 -0 2 4 5 6 7 8 8
-30 -28 -27 -26 -26 -26 -26 -26 -27 -28 -28 -29 -30 -30 -30 -30 -29 -29 -28 -27 -27 -26 -25 -25 -25 -24 -23 -20 -20 -17 -12 -9 -7 -6 -5 -4 -3 -2 -1 -0 0 1 1 1 -0 -0 2 4 5 6 7 7
-30 -27 -26 -25 -25 -25 -25 -25 -25 -25 -26 -26 -27 -27 -28 -28 -29 -29 -29 -28 -28 -27 -26 -26 -25 -26 -26 -23 -22 -21 -17 -13 -9 -7 -6 -5 -4 -3 -2 -1 -0 0 1 1 1 -0 0 2 3 4 6 7
-30 -27 -25 -25 -25 -25 -24 -24 -24 -24 -24 -24 -25 -25 -25 -25 -26 -26 -27 -27 -27 -27 -26 -26 -25 -25 -26 -26 -23 -23 -22 -17 -13 -9 -7 -7 -6 -5 -4 -2 -1 -0 0 0 1 0 -0 -0 2 3 4 5
-31 -27 -25 -25 -24 -24 -24 -23 -23 -23 -23 -23 -23 -23 -23 -23 -23 -24 -24 -24 -24 -25 -25 -24 -25 -25 -26 -28 -26 -23 -23 -22 -17 -13 -10 -8 -7 -6 -5 -4 -2 -1 -1 -0 0 0 0 -0 0 2 3 4
-32 -27 -25 -24 -24 -24 -24 -24 -23 -23 -23 -23 -23 -23 -23 -23 -22 -22 -23 -23 -23 -23 -23 -23 -23 -23 -25 -26 -28 -26 -24 -23 -21 -18 -13 -10 -8 -7 -6 -5 -3 -2 -2 -1 -1 -0 0 0 0 0 1 3
-32 -27 -25 -24 -24 -24 -23 -23 -23 -23 -23 -23 -23 -23 -23 -23 -22 -22 -22 -22 -22 -22 -22 -22 -22 -22 -23 -25 -27 -28 -25 -24 -23 -21 -18 -13 -10 -8 -7 -5 -4 -3 -3 -2 -2 -1 -0 0 0 0 0 1
-34 -27 -25 -24 -24 -23 -23 -23 -23 -23 -23 -23 -23 -23 -23 -23 -22 -23 -22 -22 -22 -22 -21 -21 -21 -21 -21 -23 -25 -27 -26 -25 -24 -23 -21 -17 -13 -10 -8 -7 -5 -4 -4 -3 -3 -2 -1 -1 -0 0 0 1
-34 -27 -25 -25 -24 -23 -23 -23 -23 -23 -23 -23 -23 -23 -23 -23 -22 -22 -22 -22 -21 -21 -21 -20 -20 -20 -20 -21 -23 -26 -25 -24 -24 -24 -22 -21 -17 -13 -10 -8 -7 -5 -5 -4 -3 -3 -2 -2 -1 -0 0 0
-35 -28 -26 -24 -24 -24 -23 -23 -23 -23 -23 -23 -23 -23 -23 -22 -22 -22 -21 -21 -21 -21 -21 -20 -20 -19 -19 -20 -21 -23 -25 -24 -23 -23 -23 -22 -20 -17 -13 -10 -9 -7 -5 -5 -4 -4 -3 -3 -2 -1 -1 -0
-38 -30 -26 -25 -24 -24 -24 -23 -23 -23 -23 -23 -23 -22 -22 -22 -22 -22 -22 -22 -21 -21 -21 -20 -19 -19 -19 -19 -19 -21 -23 -23 -22 -22 -23 -23 -22 -20 -16 -13 -11 -9 -7 -6 -5 -5 -4 -4 -3 -2 -1 -1
-40 -33 -27 -25 -25 -24 -23 -23 -23 -23 -22 -22 -22 -22 -22 -22 -22 -22 -22 -22 -22 -21 -21 -20 -19 -19 -18 -18 -19 -19 -21 -22 -22 -21 -22 -22 -22 -21 -19 -16 -14 -12 -9 -7 -6 -5 -5 -4 -4 -3 -3 -2
-40 -35 -29 -26 -25 -24 -24 -23 -22 -22 -22 -22 -22 -22 -22 -22 -22 -22 -22 -22 -22 -22 -21 -20 -19 -18 -18 -18 -18 -18 -19 -21 -21 -20 -20 -21 -21 -21 -21 -19 -17 -15 -12 -10 -8 -6 -5 -5 -4 -4 -4 -3
-39 -36 -30 -26 -25 -25 -24 -23 -22 -22 -22 -22 -22 -22 -22 -22 -22 -22 -22 -22 -21 -21 -21 -20 -18 -18 -17 -17 -17 -18 -18 -19 -20 -20 -20 -20 -20 -21 -21 -20 -19 -18 -16 -13 -11 -8 -7 -5 -5 -4 -4 -4
-38 -38 -32 -27 -26 -25 -24 -23 -23 -22 -22 -22 -22 -22 -22 -22 -22 -22 -22 -22 -21 -20 -19 -19 -18 -17 -17 -17 -17 -18 -18 -19 -19 -20 -19 -19 -19 -20 -20 -20 -20 -19 -19 -17 -14 -12 -9 -7 -6 -5 -5 -4
-36 -38 -33 -27 -25 -24 -24 -23 -23 -22 -22 -22 -22 -22 -22 -22 -22 -22 -22 -22 -22 -20 -19 -18 -17 -17 -17 -17 -17 -17 -18 -18 -18 -19 -19 -18 -18 -19 -20 -20 -20 -20 -20 -20 -18 -15 -13 -10 -7 -6 -5 -5
-35 -38 -34 -27 -25 -24 -23 -23 -22 -22 -22 -22 -22 -22 -22 -22 -22 -22 -22 -22 -22 -21 -19 -17 -17 -17 -17 -17 -17 -17 -17 -18 -18 -18 -19 -18 -18 -18 -19 -20 -20 -20 -20 -21 -20 -19 -16 -14 -11 -8 -6 -5
-33 -37 -35 -27 -25 -24 -23 -23 -22 -22 -22 -22 -22 -22 -22 -22 -22 -22 -22 -22 -22 -22 -20 -18 -17 -17 -17 -17 -17 -17 -17 -17 -17 -18 -18 -18 -18 -18 -18 -19 -20 -20 -21 -21 -21 -21 -20 -17 -15 -11 -8 -6
-32 -37 -35 -28 -25 -24 -23 -22 -22 -22 -22 -22 -22 -22 -23 -22 -22 -22 -22 -22 -22 -22 -21 -19 -17 -16 -17 -17 -17 -17 -17 -17 -17 -17 -18 -18 -18 -18 -18 -18 -19 -20 -21 -22 -23 -22 -22 -20 -19 -15 -12 -9
-31 -37 -36 -29 -24 -24 -23 -22 -22 -21 -21 -22 -22 -23 -23 -23 -23 -23 -23 -23 -23 -23 -22 -21 -19 -17 -17 -17 -17 -16 -16 -17 -17 -17 -17 -18 -18 -18 -17 -17 -18 -20 -21 -22 -23 -23 -23 -23 -22 -20 -17 -13
-30 -35 -38 -30 -25 -24 -23 -22 -22 -21 -21 -22 -22 -23 -23 -23 -23 -23 -23 -23 -23 -23 -23 -22 -21 -19 -18 -17 -17 -17 -16 -16 -16 -16 -16 -17 -17 -18 -18 -18 -19 -21 -22 -23 -23 -24 -24 -24 -24 -23 -21 -18
-29 -35 -38 -31 -25 -24 -24 -23 -22 -22 -21 -21 -22 -23 -23 -23 -23 -23 -23 -23 -23 -23 -23 -23 -22 -22 -20 -19 -18 -18 -17 -17 -16 -16 -16 -16 -17 -18 -18 -19 -21 -22 -23 -23 -23 -23 -23 -24 -25 -24 -24 -23
-28 -33 -38 -32 -26 -24 -23 -23 -22 -21 -21 -21 -22 -23 -23 -23 -23 -23 -23 -23 -23 -23 -23 -23 -23 -23 -22 -21 -20 -20 -19 -19 -18 -17 -17 -17 -17 -18 -20 -22 -23 -23 -23 -23 -23 -23 -24 -24 -25 -25 -25 -25
-27 -31 -37 -33 -26 -24 -24 -23 -22 -22 -21 -21 -22 -23 -23 -23 -23 -23 -23 -23 -23 -23 -23 -23 -23 -23 -23 -22 -21 -21 -21 -20 -20 -19 -19 -18 -18 -20 -22 -23 -23 -23 -23 -22 -22 -23 -23 -24 -24 -23 -22 -25
-26 -30 -37 -36 -28 -24 -24 -23 -23 -22 -21 -21 -22 -22 -23 -23 -23 -23 -23 -23 -23 -24 -23 -23 -23 -23 -23 -23 -22 -22 -22 -21 -21 -21 -20 -20 -21 -22 -23 -23 -23 -23 -22 -22 -23 -23 -23 -23 -23 -20 -17 -18
-25 -30 -37 -38 -30 -25 -24 -24 -23 -22 -22 -21 -21 -22 -23 -23 -23 -23 -23 -23 -23 -23 -24 -23 -23 -23 -23 -23 -22 -22 -22 -22 -22 -22 -22 -22 -23 -23 -22 -22 -22 -22 -22 -22 -22 -22 -20 -19 -20 -21 -20 -18
-24 -29 -35 -39 -32 -25 -24 -24 -23 -23 -22 -21 -21 -22 -23 -23 -23 -23 -23 -23 -23 -23 -23 -23 -23 -23 -23 -23 -23 -23 -22 -23 -22 -22 -22 -22 -22 -22 -22 -22 -22 -22 -22 -22 -22 -20 -18 -18 -19 -19 -18 -19
-25 -28 -33 -40 -34 -26 -24 -24 -23 -22 -22 -21 -21 -22 -23 -23 -23 -23 -23 -22 -22 -22 -22 -23 -23 -23 -23 -23 -23 -23 -22 -22 -22 -22 -22 -21 -21 -21 -21 -21 -21 -21 -21 -22 -21 -20 -18 -16 -16 -15 -14 -17
-24 -28 -32 -40 -36 -27 -24 -24 -23 -22 -22 -21 -21 -22 -23 -23 -23 -23 -22 -22 -22 -22 -22 -22 -22 -22 -22 -22 -22 -22 -21 -21 -21 -21 -20 -20 -20 -19 -19 -20 -20 -21 -21 -22 -21 -21 -19 -16 -14 -14 -15 -16
-23 -26 -30 -39 -38 -29 -25 -24 -23 -22 -22 -21 -21 -21 -22 -23 -23 -23 -22 -22 -21 -21 -21 -21 -21 -21 -21 -21 -21 -20 -20 -20 -20 -19 -19 -19 -19 -19 -19 -19 -19 -20 -21 -21 -21 -21 -21 -19 -18 -18 -17 -15

ECMWFFLT2_850_dewp_054.txt.gz
Dewpoint
-36 -32 -29 -27 -25 -25 -25 -25 -25 -24 -24 -24 -25 -26 -25 -26 -26 -26 -27 -27 -27 -28 -28 -29 -30 -30 -31 -31 -31 -30 -29 -29 -28 -26 -23 -20 -16 -11 -10 -11 -11 -10 -9 -8 -6 -5 -4 -3 -0 1 2 3
-39 -35 -31 -27 -26 -25 -25 -24 -25 -25 -24 -24 -25 -25 -25 -25 -24 -26 -25 -25 -26 -26 -27 -27 -27 -27 -27 -28 -29 -29 -29 -30 -31 -29 -26 -23 -19 -15 -12 -12 -12 -11 -9 -7 -6 -5 -5 -4 -2 1 1 1
-40 -40 -34 -29 -26 -24 -25 -24 -24 -24 -24 -24 -24 -24 -24 -24 -24 -25 -25 -26 -26 -26 -27 -27 -27 -27 -26 -25 -26 -27 -27 -29 -30 -30 -30 -26 -23 -20 -17 -14 -11 -10 -8 -6 -6 -5 -5 -5 -3 -1 1 1
-36 -41 -39 -33 -28 -25 -24 -24 -24 -24 -24 -24 -24 -24 -24 -25 -25 -25 -26 -26 -26 -26 -27 -27 -27 -26 -25 -25 -24 -24 -25 -26 -28 -29 -30 -29 -26 -23 -21 -17 -12 -9 -7 -6 -5 -5 -5 -4 -4 -2 0 1
-28 -35 -41 -38 -31 -26 -25 -24 -24 -24 -24 -24 -25 -25 -25 -25 -25 -26 -25 -25 -25 -25 -25 -26 -26 -25 -25 -24 -24 -24 -24 -24 -26 -28 -29 -29 -28 -25 -24 -22 -16 -10 -7 -6 -5 -4 -4 -4 -4 -3 -1 1
-23 -27 -35 -41 -36 -29 -25 -24 -24 -24 -24 -25 -26 -26 -27 -26 -25 -25 -25 -24 -25 -24 -24 -24 -25 -25 -24 -24 -24 -23 -23 -23 -24 -27 -28 -29 -28 -27 -25 -24 -21 -15 -9 -6 -5 -4 -3 -3 -3 -3 -2 0
-20 -22 -27 -36 -41 -35 -28 -25 -24 -24 -24 -24 -26 -26 -26 -26 -25 -25 -25 -25 -25 -24 -24 -24 -24 -25 -24 -24 -24 -23 -23 -23 -23 -25 -27 -28 -27 -27 -26 -24 -23 -19 -13 -8 -6 -5 -4 -3 -2 -2 -2 -1
-19 -19 -22 -29 -39 -40 -32 -27 -25 -24 -23 -24 -25 -26 -26 -25 -26 -26 -26 -25 -25 -24 -23 -23 -23 -23 -24 -23 -23 -23 -23 -22 -23 -23 -26 -28 -28 -27 -26 -25 -24 -22 -17 -11 -8 -6 -5 -4 -3 -2 -2 -1
-18 -18 -19 -23 -32 -40 -37 -30 -26 -25 -24 -23 -24 -25 -25 -25 -26 -26 -26 -26 -25 -24 -23 -22 -23 -22 -22 -22 -22 -23 -22 -22 -22 -22 -24 -27 -28 -27 -26 -25 -24 -23 -20 -14 -10 -7 -6 -5 -4 -3 -2 -1
-17 -18 -18 -21 -27 -36 -40 -34 -29 -26 -25 -24 -24 -24 -25 -25 -26 -26 -27 -27 -26 -24 -23 -22 -22 -22 -22 -22 -22 -21 -21 -22 -22 -22 -23 -25 -26 -26 -26 -25 -24 -23 -22 -18 -13 -9 -7 -6 -5 -4 -2 -1
-17 -17 -17 -19 -23 -30 -38 -37 -31 -27 -25 -24 -24 -24 -24 -24 -24 -26 -27 -27 -27 -25 -24 -23 -22 -22 -22 -22 -21 -21 -20 -21 -22 -21 -21 -23 -24 -25 -25 -25 -24 -23 -23 -21 -16 -11 -8 -7 -6 -5 -4 -2
-16 -17 -17 -18 -21 -26 -35 -39 -34 -28 -26 -24 -24 -23 -23 -23 -24 -25 -26 -27 -27 -25 -24 -22 -22 -22 -22 -21 -20 -20 -20 -20 -21 -21 -21 -22 -22 -22 -23 -23 -24 -23 -22 -22 -19 -15 -10 -8 -7 -6 -5 -4
-16 -16 -17 -17 -19 -23 -31 -39 -36 -30 -26 -25 -24 -23 -23 -23 -23 -24 -25 -27 -26 -25 -24 -23 -22 -22 -21 -21 -20 -20 -19 -19 -20 -19 -20 -21 -21 -21 -21 -21 -22 -23 -22 -21 -21 -18 -13 -10 -8 -7 -6 -5
-15 -16 -16 -17 -18 -20 -27 -36 -38 -31 -27 -25 -23 -22 -23 -23 -23 -24 -25 -26 -25 -24 -24 -23 -23 -22 -21 -20 -20 -20 -19 -19 -19 -19 -19 -20 -21 -20 -20 -20 -20 -22 -22 -22 -21 -20 -17 -13 -10 -9 -7 -6
-15 -15 -16 -16 -17 -19 -23 -32 -38 -32 -28 -25 -24 -23 -22 -22 -23 -23 -24 -25 -24 -23 -23 -23 -22 -22 -21 -20 -19 -19 -19 -19 -19 -19 -19 -19 -20 -20 -20 -19 -19 -21 -21 -22 -21 -21 -19 -16 -13 -11 -9 -7
-15 -15 -16 -16 -17 -18 -22 -29 -37 -34 -28 -25 -24 -23 -22 -22 -22 -23 -24 -24 -24 -23 -23 -22 -22 -22 -22 -20 -19 -19 -19 -19 -19 -19 -18 -19 -20 -20 -19 -19 -19 -19 -20 -21 -21 -21 -21 -19 -16 -14 -11 -9
-16 -15 -15 -16 -17 -18 -21 -27 -36 -37 -30 -25 -24 -23 -22 -22 -22 -23 -23 -24 -24 -23 -23 -23 -22 -22 -22 -21 -20 -19 -19 -19 -18 -18 -18 -18 -19 -19 -19 -19 -18 -19 -19 -21 -21 -22 -22 -21 -18 -16 -14 -12
-16 -15 -15 -16 -16 -17 -20 -25 -33 -38 -33 -27 -25 -23 -22 -22 -22 -23 -23 -23 -24 -23 -23 -22 -22 -22 -22 -21 -20 -20 -19 -18 -18 -17 -17 -17 -18 -18 -19 -18 -18 -18 -19 -20 -21 -22 -23 -23 -21 -18 -16 -14
-17 -16 -15 -15 -16 -17 -18 -23 -30 -37 -35 -28 -25 -23 -22 -22 -22 -22 -23 -24 -23 -23 -23 -23 -23 -22 -22 -21 -21 -20 -19 -18 -18 -17 -17 -17 -17 -18 -18 -17 -17 -18 -18 -19 -21 -22 -23 -24 -22 -20 -18 -16
-17 -16 -15 -15 -16 -16 -18 -21 -28 -36 -37 -30 -25 -24 -22 -22 -21 -22 -23 -23 -23 -23 -23 -23 -23 -22 -22 -22 -22 -22 -20 -19 -18 -17 -16 -17 -17 -17 -17 -18 -17 -17 -18 -19 -20 -22 -24 -24 -23 -22 -20 -18
-17 -16 -16 -15 -15 -16 -17 -20 -26 -33 -37 -32 -26 -24 -23 -22 -21 -22 -23 -23 -23 -23 -23 -23 -23 -23 -23 -23 -23 -23 -21 -20 -18 -17 -17 -18 -17 -16 -17 -18 -17 -17 -17 -18 -21 -23 -24 -24 -24 -22 -21 -20
-17 -16 -16 -16 -16 -16 -17 -20 -24 -30 -37 -34 -27 -24 -24 -22 -21 -22 -23 -24 -23 -23 -23 -23 -23 -23 -23 -23 -23 -23 -22 -22 -20 -19 -18 -19 -19 -18 -18 -18 -17 -18 -18 -20 -22 -23 -23 -24 -24 -23 -22 -20
-16 -17 -16 -16 -16 -16 -17 -19 -23 -28 -35 -36 -28 -25 -24 -23 -22 -21 -22 -23 -23 -23 -23 -23 -23 -23 -23 -23 -23 -23 -23 -22 -21 -20 -20 -20 -21 -21 -20 -19 -19 -19 -20 -22 -23 -23 -23 -24 -24 -23 -22 -21
-16 -17 -17 -16 -16 -16 -17 -19 -22 -26 -32 -39 -31 -25 -24 -23 -22 -21 -22 -23 -23 -23 -23 -23 -23 -23 -24 -23 -23 -23 -23 -22 -21 -20 -21 -22 -22 -22 -22 -21 -21 -21 -22 -23 -22 -22 -23 -23 -23 -23 -22 -22
-16 -16 -17 -16 -16 -16 -17 -19 -21 -24 -29 -38 -35 -27 -24 -23 -22 -21 -22 -23 -23 -23 -23 -23 -24 -23 -24 -23 -23 -23 -23 -23 -22 -22 -22 -22 -22 -22 -22 -22 -21 -21 -23 -21 -19 -20 -23 -23 -23 -21 -19 -18
-16 -16 -16 -17 -16 -16 -17 -18 -20 -24 -28 -36 -37 -28 -24 -23 -22 -21 -21 -22 -23 -23 -23 -23 -23 -23 -23 -23 -24 -23 -23 -23 -23 -23 -23 -22 -23 -22 -23 -22 -21 -22 -21 -19 -18 -19 -20 -19 -20 -19 -16 -15
-16 -16 -16 -17 -17 -17 -17 -18 -20 -22 -25 -34 -39 -30 -25 -23 -22 -22 -21 -22 -23 -23 -23 -23 -23 -23 -23 -23 -23 -23 -23 -23 -23 -23 -23 -23 -23 -22 -22 -21 -20 -21 -21 -20 -18 -17 -17 -16 -17 -17 -17 -18
-16 -16 -16 -17 -17 -17 -17 -18 -19 -21 -23 -30 -39 -32 -25 -24 -23 -21 -21 -22 -23 -23 -23 -23 -23 -22 -22 -22 -23 -23 -23 -23 -22 -22 -22 -22 -21 -21 -21 -20 -19 -19 -20 -21 -18 -16 -16 -15 -16 -16 -16 -19
-16 -16 -16 -17 -17 -17 -17 -18 -19 -21 -23 -28 -38 -35 -27 -24 -23 -22 -21 -21 -22 -23 -23 -23 -22 -22 -22 -22 -22 -22 -22 -22 -21 -21 -21 -20 -20 -19 -19 -19 -19 -19 -19 -20 -18 -17 -17 -15 -14 -14 -15 -18
-16 -16 -16 -17 -17 -17 -17 -17 -18 -20 -23 -27 -36 -37 -29 -24 -23 -22 -21 -21 -22 -23 -23 -22 -22 -22 -21 -21 -21 -21 -21 -21 -20 -20 -20 -19 -19 -19 -18 -18 -18 -18 -18 -19 -19 -20 -19 -15 -14 -15 -17 -18
-16 -16 -16 -16 -17 -17 -17 -17 -18 -20 -23 -28 -35 -38 -30 -25 -23 -22 -21 -21 -22 -23 -23 -22 -22 -21 -21 -21 -21 -21 -21 -20 -20 -19 -19 -19 -19 -18 -18 -18 -17 -17 -18 -18 -19 -20 -19 -18 -18 -19 -19 -17

ECMWFFLT2_850_dewp_057.txt.gz
Dewpoint
-22 -25 -30 -35 -37 -39 -34 -30 -27 -25 -25 -25 -26 -26 -26 -26 -26 -28 -29 -30 -33 -32 -33 -33 -34 -33 -30 -28 -24 -20 -23 -28 -28 -30 -30 -33 -33 -32 -33 -32 -33 -33 -33 -33 -32 -31 -26 -21 -17 -12 -10 -7
-19 -21 -24 -27 -32 -36 -39 -37 -30 -27 -25 -24 -25 -25 -26 -26 -27 -28 -30 -32 -33 -33 -33 -34 -34 -34 -30 -28 -27 -24 -26 -27 -27 -27 -27 -28 -29 -31 -31 -31 -32 -32 -33 -33 -33 -31 -28 -24 -21 -16 -12 -9
-17 -18 -20 -22 -27 -31 -36 -40 -37 -31 -27 -25 -24 -24 -25 -26 -28 -29 -32 -32 -31 -33 -33 -33 -35 -33 -30 -28 -28 -28 -27 -27 -27 -26 -26 -26 -26 -28 -28 -30 -30 -30 -32 -33 -33 -32 -29 -25 -22 -20 -15 -11
-16 -17 -18 -20 -23 -26 -29 -34 -40 -39 -31 -27 -25 -24 -25 -26 -28 -30 -31 -30 -29 -31 -32 -32 -33 -32 -30 -28 -28 -28 -28 -27 -27 -25 -25 -25 -25 -26 -26 -27 -29 -29 -30 -31 -33 -32 -31 -27 -21 -20 -17 -12
-16 -16 -17 -18 -19 -21 -24 -26 -32 -40 -39 -33 -28 -26 -25 -25 -26 -27 -28 -28 -28 -30 -32 -32 -32 -32 -31 -29 -28 -28 -29 -28 -27 -27 -26 -25 -25 -25 -25 -26 -27 -28 -29 -30 -32 -32 -31 -29 -22 -18 -17 -13
-16 -16 -16 -16 -17 -18 -20 -22 -25 -31 -39 -40 -33 -28 -25 -24 -24 -25 -27 -27 -28 -31 -32 -32 -32 -33 -31 -29 -30 -30 -29 -28 -28 -28 -27 -26 -25 -24 -25 -25 -25 -26 -28 -29 -29 -32 -31 -30 -26 -18 -15 -13
-16 -16 -16 -16 -16 -17 -18 -19 -20 -23 -31 -40 -39 -33 -27 -25 -24 -24 -26 -27 -29 -31 -31 -30 -29 -30 -31 -30 -30 -30 -29 -28 -28 -27 -27 -26 -26 -25 -24 -25 -25 -26 -26 -28 -28 -30 -31 -30 -29 -21 -14 -10
-16 -16 -16 -16 -16 -16 -17 -18 -19 -20 -24 -33 -42 -40 -31 -26 -24 -24 -25 -27 -28 -29 -29 -28 -27 -28 -28 -28 -27 -27 -27 -26 -25 -25 -25 -23 -24 -25 -24 -24 -24 -25 -25 -26 -28 -29 -31 -31 -30 -27 -18 -11
-16 -16 -16 -16 -16 -16 -16 -17 -18 -19 -20 -25 -36 -42 -37 -29 -25 -24 -24 -25 -26 -27 -28 -27 -27 -26 -24 -24 -25 -25 -25 -23 -22 -24 -23 -21 -22 -23 -23 -24 -24 -24 -25 -25 -27 -28 -30 -31 -30 -30 -23 -14
-16 -16 -16 -16 -16 -16 -16 -16 -17 -17 -18 -21 -27 -40 -41 -34 -27 -24 -23 -23 -24 -26 -27 -27 -26 -24 -22 -23 -24 -24 -23 -22 -23 -23 -23 -21 -20 -22 -23 -24 -24 -24 -24 -25 -26 -27 -29 -30 -31 -30 -29 -20
-16 -16 -16 -16 -17 -16 -16 -16 -16 -17 -18 -19 -22 -32 -42 -39 -31 -25 -23 -22 -23 -25 -26 -27 -26 -24 -23 -23 -24 -22 -22 -22 -23 -22 -22 -21 -20 -21 -21 -22 -23 -23 -23 -24 -25 -26 -27 -29 -31 -30 -30 -27
-16 -16 -16 -16 -16 -17 -16 -16 -16 -16 -17 -18 -19 -25 -38 -41 -34 -27 -24 -22 -23 -24 -25 -26 -26 -25 -24 -24 -23 -21 -21 -22 -22 -21 -20 -20 -20 -20 -20 -20 -21 -21 -20 -21 -22 -24 -26 -28 -29 -31 -29 -29
-16 -16 -16 -16 -16 -16 -17 -16 -16 -16 -17 -17 -18 -21 -31 -42 -37 -28 -25 -23 -22 -23 -24 -25 -25 -25 -24 -23 -22 -21 -21 -21 -20 -21 -20 -20 -20 -19 -19 -20 -20 -19 -19 -19 -20 -21 -23 -26 -27 -29 -30 -29
-15 -16 -16 -16 -16 -16 -17 -16 -16 -16 -16 -17 -17 -19 -25 -38 -39 -31 -26 -23 -22 -23 -24 -25 -25 -25 -24 -23 -22 -21 -21 -21 -20 -20 -21 -21 -21 -20 -20 -21 -21 -20 -19 -18 -18 -18 -19 -23 -26 -27 -29 -29
-16 -15 -16 -16 -16 -16 -16 -17 -16 -16 -16 -16 -17 -17 -21 -31 -41 -34 -28 -24 -22 -22 -23 -24 -25 -25 -24 -23 -23 -22 -21 -21 -21 -21 -22 -22 -22 -21 -20 -20 -21 -20 -18 -17 -17 -17 -17 -20 -24 -25 -26 -28
-16 -16 -16 -16 -16 -16 -16 -17 -17 -16 -16 -16 -16 -17 -19 -25 -39 -38 -30 -26 -23 -22 -22 -23 -25 -25 -25 -24 -24 -23 -21 -21 -22 -23 -23 -21 -20 -19 -19 -19 -18 -18 -17 -16 -16 -16 -16 -19 -22 -25 -25 -27
-16 -16 -16 -16 -16 -16 -16 -16 -17 -16 -16 -16 -16 -17 -18 -21 -32 -41 -33 -27 -24 -22 -22 -23 -24 -25 -25 -24 -23 -23 -22 -22 -22 -21 -20 -20 -19 -18 -17 -17 -16 -16 -16 -15 -15 -16 -16 -18 -21 -24 -25 -26
-16 -16 -16 -16 -16 -16 -16 -16 -16 -17 -16 -16 -16 -16 -17 -19 -26 -39 -36 -29 -25 -23 -22 -22 -24 -24 -24 -24 -23 -23 -22 -22 -21 -20 -20 -20 -20 -18 -16 -16 -15 -14 -15 -14 -14 -15 -16 -17 -21 -24 -25 -26
-15 -16 -16 -16 -16 -16 -16 -16 -16 -17 -16 -16 -16 -16 -17 -18 -23 -34 -39 -30 -26 -24 -22 -22 -23 -24 -24 -23 -23 -23 -22 -22 -22 -21 -21 -21 -20 -18 -17 -17 -16 -14 -14 -14 -14 -14 -15 -17 -21 -24 -24 -26
-15 -15 -16 -15 -16 -16 -16 -16 -16 -16 -16 -16 -16 -16 -16 -18 -20 -29 -39 -32 -27 -24 -22 -22 -23 -24 -24 -23 -23 -23 -23 -23 -23 -22 -21 -21 -20 -19 -18 -17 -16 -14 -14 -14 -14 -14 -15 -18 -23 -24 -24 -25
-15 -15 -15 -15 -15 -16 -16 -16 -16 -16 -16 -16 -16 -16 -16 -17 -19 -25 -37 -36 -28 -25 -23 -22 -22 -23 -24 -23 -23 -23 -24 -24 -23 -22 -22 -21 -21 -20 -18 -17 -16 -15 -15 -15 -15 -16 -18 -22 -23 -23 -24 -24
-15 -15 -15 -15 -15 -15 -15 -15 -16 -16 -17 -16 -16 -16 -16 -16 -18 -22 -32 -38 -31 -26 -24 -22 -22 -23 -24 -24 -24 -24 -24 -24 -23 -23 -23 -22 -21 -21 -19 -18 -18 -17 -17 -15 -15 -19 -22 -23 -23 -23 -24 -24
-15 -15 -15 -15 -15 -15 -15 -15 -16 -16 -16 -16 -17 -17 -16 -16 -17 -20 -29 -37 -33 -27 -25 -22 -21 -22 -24 -24 -24 -24 -24 -24 -24 -23 -23 -22 -22 -22 -21 -20 -20 -20 -17 -15 -16 -21 -22 -21 -23 -23 -23 -24
-15 -15 -15 -15 -15 -15 -15 -15 -16 -16 -16 -16 -16 -17 -16 -16 -17 -19 -26 -35 -35 -29 -25 -23 -22 -22 -23 -24 -24 -24 -24 -24 -23 -23 -22 -22 -22 -23 -23 -22 -22 -20 -16 -16 -19 -21 -18 -18 -21 -21 -21 -23
-15 -15 -15 -15 -15 -15 -15 -16 -16 -16 -16 -16 -17 -17 -17 -16 -16 -19 -24 -32 -37 -31 -26 -23 -22 -22 -23 -24 -24 -24 -24 -24 -24 -24 -23 -23 -23 -23 -23 -23 -21 -18 -16 -17 -19 -17 -16 -18 -18 -16 -17 -19
-14 -14 -15 -15 -16 -16 -16 -16 -16 -16 -16 -17 -17 -17 -17 -16 -16 -18 -22 -28 -36 -33 -27 -24 -22 -21 -23 -23 -24 -23 -24 -24 -24 -24 -24 -23 -23 -23 -22 -22 -20 -19 -18 -17 -17 -16 -16 -17 -16 -15 -15 -15
-13 -14 -14 -15 -15 -16 -16 -16 -16 -17 -17 -17 -17 -17 -17 -17 -16 -18 -21 -25 -33 -35 -28 -24 -22 -21 -22 -23 -23 -23 -23 -23 -23 -23 -23 -23 -23 -22 -21 -21 -20 -18 -18 -17 -17 -17 -16 -16 -17 -17 -15 -13
-12 -13 -14 -15 -15 -15 -16 -16 -17 -17 -17 -17 -18 -18 -17 -17 -17 -18 -21 -24 -30 -36 -30 -25 -23 -21 -22 -23 -23 -23 -23 -23 -23 -23 -23 -22 -21 -21 -21 -20 -19 -17 -17 -18 -18 -16 -15 -16 -17 -16 -15 -14
-12 -13 -14 -14 -15 -15 -15 -16 -16 -16 -17 -17 -17 -18 -18 -18 -18 -19 -20 -23 -28 -34 -32 -26 -23 -22 -22 -23 -23 -22 -23 -22 -23 -22 -22 -21 -21 -20 -20 -19 -18 -18 -17 -17 -18 -16 -15 -16 -16 -14 -15 -16
-10 -12 -13 -14 -14 -15 -15 -15 -16 -16 -17 -17 -17 -18 -18 -18 -19 -19 -20 -23 -27 -32 -34 -28 -24 -22 -21 -22 -23 -22 -22 -22 -22 -22 -21 -21 -20 -20 -19 -19 -19 -18 -18 -17 -18 -18 -17 -17 -16 -14 -15 -17
-9 -10 -12 -13 -14 -14 -15 -15 -16 -16 -17 -17 -18 -18 -19 -19 -19 -19 -20 -22 -27 -31 -34 -29 -25 -23 -21 -22 -23 -22 -22 -22 -22 -22 -21 -20 -20 -19 -19 -19 -19 -18 -18 -17 -18 -18 -17 -17 -16 -15 -16 -17

ECMWFFLT2_850_dewp_060.txt.gz
Dewpoint
-18 -18 -18 -18 -19 -20 -22 -25 -28 -32 -37 -40 -40 -33 -28 -28 -27 -29 -32 -34 -35 -35 -36 -35 -34 -34 -33 -34 -36 -37 -36 -35 -34 -34 -32 -32 -31 -30 -31 -30 -32 -32 -32 -34 -33 -35 -36 -38 -37 -36 -32 -26
-17 -18 -17 -18 -18 -18 -19 -21 -23 -26 -31 -35 -38 -39 -35 -31 -28 -28 -29 -32 -34 -35 -36 -35 -35 -34 -34 -34 -35 -36 -35 -34 -34 -33 -32 -32 -31 -31 -30 -29 -30 -30 -31 -32 -33 -34 -33 -36 -37 -38 -39 -35
-17 -17 -17 -17 -17 -17 -18 -19 -20 -21 -23 -27 -31 -36 -39 -38 -34 -29 -27 -29 -32 -34 -35 -35 -35 -35 -34 -34 -34 -35 -34 -33 -33 -32 -33 -31 -31 -30 -29 -30 -29 -29 -31 -30 -32 -32 -32 -34 -35 -37 -38 -38
-17 -16 -17 -17 -17 -17 -17 -17 -18 -18 -20 -22 -24 -29 -34 -39 -40 -35 -31 -28 -28 -31 -34 -35 -35 -35 -34 -34 -34 -34 -34 -33 -32 -32 -32 -32 -30 -30 -30 -30 -29 -30 -29 -29 -31 -30 -32 -32 -33 -36 -37 -37
-16 -16 -17 -17 -17 -17 -17 -17 -17 -17 -18 -19 -20 -23 -27 -32 -38 -41 -38 -32 -28 -27 -30 -34 -34 -36 -35 -35 -34 -33 -34 -33 -32 -33 -32 -32 -30 -29 -30 -29 -29 -29 -28 -28 -29 -29 -30 -31 -31 -33 -36 -37
-16 -16 -16 -16 -16 -16 -16 -16 -17 -16 -17 -17 -18 -20 -22 -25 -31 -38 -42 -38 -33 -27 -27 -29 -32 -34 -34 -34 -34 -33 -33 -33 -31 -31 -31 -28 -27 -28 -28 -29 -29 -29 -28 -29 -28 -29 -29 -29 -29 -30 -34 -36
-16 -16 -16 -16 -16 -16 -16 -16 -16 -16 -16 -16 -17 -18 -19 -21 -24 -31 -39 -40 -38 -32 -28 -26 -28 -31 -32 -34 -34 -32 -31 -32 -31 -28 -26 -25 -24 -25 -26 -26 -28 -28 -28 -28 -27 -28 -28 -29 -30 -29 -30 -32
-16 -16 -16 -16 -16 -16 -16 -16 -16 -16 -16 -16 -16 -17 -17 -18 -20 -24 -32 -39 -41 -37 -31 -26 -25 -28 -31 -32 -32 -32 -31 -31 -31 -26 -25 -25 -23 -22 -23 -24 -25 -27 -27 -27 -28 -28 -28 -28 -28 -28 -29 -30
-16 -16 -16 -16 -15 -16 -16 -16 -16 -16 -16 -16 -16 -16 -17 -17 -18 -20 -25 -33 -41 -40 -37 -30 -25 -25 -28 -30 -31 -32 -32 -32 -30 -27 -25 -25 -24 -22 -22 -23 -24 -25 -27 -27 -27 -28 -28 -28 -28 -27 -27 -28
-16 -16 -16 -16 -15 -15 -16 -16 -15 -16 -16 -16 -16 -16 -16 -17 -17 -18 -20 -25 -36 -40 -39 -35 -27 -24 -25 -27 -30 -32 -33 -32 -29 -27 -26 -25 -24 -23 -22 -23 -24 -24 -25 -26 -27 -27 -28 -28 -29 -27 -27 -27
-16 -16 -15 -16 -15 -15 -15 -15 -15 -15 -16 -16 -16 -16 -16 -16 -16 -17 -18 -20 -28 -38 -40 -38 -31 -25 -24 -25 -27 -31 -32 -32 -30 -28 -27 -25 -25 -24 -23 -23 -24 -24 -24 -25 -26 -26 -27 -28 -29 -29 -28 -27
-15 -16 -16 -15 -15 -15 -15 -15 -15 -15 -15 -15 -16 -16 -16 -16 -16 -16 -17 -18 -22 -31 -39 -38 -35 -28 -24 -24 -25 -28 -31 -31 -31 -28 -27 -26 -25 -24 -24 -24 -24 -25 -24 -25 -25 -25 -25 -26 -27 -29 -29 -27
-15 -15 -15 -15 -16 -15 -15 -15 -15 -15 -15 -15 -15 -16 -16 -16 -16 -16 -16 -17 -19 -24 -35 -38 -37 -32 -25 -23 -24 -26 -29 -30 -30 -29 -28 -26 -25 -25 -25 -24 -24 -25 -25 -25 -25 -25 -25 -25 -25 -26 -28 -27
-15 -15 -15 -15 -15 -15 -15 -15 -15 -15 -15 -15 -15 -15 -16 -16 -16 -16 -16 -16 -17 -19 -27 -37 -37 -34 -28 -23 -23 -24 -26 -28 -29 -29 -28 -26 -25 -25 -25 -25 -25 -25 -25 -25 -25 -25 -24 -24 -23 -23 -26 -27
-14 -14 -14 -15 -15 -15 -15 -15 -15 -15 -15 -15 -15 -15 -15 -16 -16 -16 -16 -16 -16 -17 -21 -31 -37 -35 -30 -24 -22 -23 -25 -26 -28 -28 -27 -26 -25 -25 -25 -26 -26 -25 -24 -24 -24 -24 -23 -23 -22 -22 -23 -26
-14 -14 -14 -14 -14 -15 -15 -15 -15 -15 -15 -15 -15 -15 -15 -15 -16 -16 -16 -16 -16 -17 -18 -25 -35 -36 -32 -27 -23 -23 -24 -25 -27 -28 -27 -26 -26 -25 -26 -25 -25 -25 -23 -23 -23 -22 -22 -22 -22 -21 -22 -24
-14 -14 -14 -14 -14 -15 -15 -15 -15 -15 -15 -15 -15 -15 -15 -15 -16 -16 -16 -16 -16 -16 -17 -20 -29 -37 -33 -28 -24 -23 -23 -24 -26 -27 -27 -26 -26 -25 -25 -25 -25 -24 -23 -23 -23 -21 -21 -21 -21 -21 -22 -23
-14 -14 -14 -14 -14 -14 -15 -15 -15 -15 -15 -15 -15 -15 -15 -15 -15 -16 -16 -16 -16 -16 -16 -18 -24 -34 -35 -29 -25 -23 -23 -24 -25 -26 -26 -25 -25 -25 -25 -25 -25 -24 -24 -23 -23 -22 -21 -21 -21 -21 -23 -24
-13 -13 -13 -14 -14 -14 -14 -14 -15 -15 -15 -15 -15 -15 -15 -15 -15 -15 -16 -16 -16 -16 -16 -17 -20 -28 -35 -32 -27 -24 -22 -23 -24 -25 -25 -25 -25 -25 -25 -25 -25 -24 -24 -24 -23 -23 -22 -21 -21 -22 -23 -24
-13 -13 -13 -13 -13 -14 -14 -14 -15 -15 -15 -15 -15 -15 -15 -15 -15 -16 -16 -16 -16 -16 -16 -17 -18 -23 -32 -35 -29 -25 -23 -22 -24 -25 -25 -25 -25 -25 -25 -25 -25 -24 -24 -24 -24 -24 -24 -23 -22 -23 -23 -24
-12 -12 -12 -13 -13 -13 -14 -14 -14 -14 -15 -15 -15 -15 -15 -15 -15 -16 -16 -16 -17 -16 -16 -16 -17 -21 -28 -35 -31 -27 -24 -22 -23 -24 -25 -25 -25 -25 -25 -25 -24 -24 -24 -24 -24 -24 -24 -23 -24 -24 -24 -24
-10 -11 -11 -12 -12 -13 -13 -14 -14 -14 -15 -15 -15 -15 -15 -16 -16 -16 -16 -16 -17 -17 -17 -17 -17 -19 -25 -33 -33 -29 -26 -23 -23 -24 -24 -24 -25 -25 -24 -25 -25 -24 -24 -24 -24 -24 -24 -24 -24 -24 -24 -23
-9 -9 -11 -11 -12 -13 -13 -13 -14 -14 -14 -15 -15 -15 -15 -16 -16 -16 -16 -17 -17 -17 -17 -17 -17 -19 -23 -30 -33 -30 -27 -24 -22 -23 -24 -24 -24 -25 -24 -25 -25 -24 -24 -24 -24 -24 -24 -24 -23 -24 -23 -22
-8 -9 -10 -10 -11 -12 -12 -13 -14 -14 -14 -15 -15 -15 -16 -16 -16 -16 -16 -17 -17 -17 -17 -17 -17 -19 -23 -29 -30 -30 -28 -25 -23 -23 -24 -24 -24 -25 -25 -24 -24 -24 -24 -24 -24 -24 -23 -22 -22 -21 -20 -19
-8 -9 -10 -11 -11 -11 -12 -13 -13 -14 -14 -14 -15 -15 -16 -16 -16 -16 -16 -17 -17 -17 -18 -18 -18 -19 -23 -28 -30 -29 -28 -26 -23 -23 -24 -24 -24 -24 -24 -24 -24 -24 -22 -21 -22 -22 -22 -21 -20 -19 -18 -17
-8 -9 -11 -11 -12 -12 -12 -13 -13 -14 -14 -15 -15 -16 -16 -16 -16 -16 -17 -17 -17 -17 -18 -18 -18 -19 -22 -28 -30 -28 -27 -26 -24 -23 -24 -24 -24 -24 -24 -24 -24 -23 -20 -19 -20 -20 -20 -20 -19 -19 -18 -16
-8 -9 -10 -11 -11 -12 -12 -12 -13 -13 -14 -15 -15 -16 -16 -16 -16 -16 -16 -17 -17 -17 -18 -18 -19 -19 -21 -26 -30 -28 -25 -25 -25 -23 -23 -24 -24 -24 -24 -23 -23 -22 -20 -19 -19 -18 -18 -17 -18 -19 -18 -15
-7 -7 -8 -9 -9 -10 -10 -11 -11 -11 -12 -13 -14 -15 -15 -16 -16 -16 -16 -17 -17 -17 -18 -18 -19 -19 -21 -25 -29 -28 -25 -24 -25 -23 -23 -23 -24 -24 -23 -23 -22 -21 -19 -18 -18 -17 -17 -16 -17 -18 -16 -14
-9 -9 -9 -9 -9 -9 -9 -9 -9 -10 -10 -11 -13 -14 -15 -16 -16 -17 -17 -17 -17 -18 -18 -18 -19 -20 -21 -25 -29 -29 -26 -24 -24 -23 -23 -23 -24 -23 -23 -22 -22 -20 -18 -16 -17 -17 -17 -17 -16 -16 -15 -15
-11 -12 -12 -12 -13 -13 -12 -11 -11 -11 -10 -11 -12 -13 -14 -15 -16 -17 -17 -18 -18 -18 -18 -18 -19 -20 -21 -24 -27 -29 -26 -24 -23 -23 -22 -23 -23 -23 -23 -22 -21 -20 -18 -17 -17 -18 -18 -18 -17 -17 -17 -17
-12 -13 -14 -15 -16 -17 -16 -14 -14 -13 -12 -12 -12 -12 -13 -14 -15 -16 -16 -17 -17 -17 -18 -18 -19 -20 -21 -22 -25 -29 -27 -24 -23 -22 -22 -22 -23 -23 -23 -22 -21 -20 -19 -18 -18 -18 -18 -18 -18 -18 -18 -18

ECMWFFLT2_850_dewp_063.txt.gz
Dewpoint
-17 -16 -17 -16 -17 -16 -17 -16 -16 -16 -16 -16 -17 -18 -20 -22 -25 -29 -33 -36 -35 -32 -31 -31 -33 -35 -35 -36 -36 -36 -35 -35 -35 -35 -36 -36 -36 -36 -35 -35 -34 -35 -35 -35 -35 -34 -34 -34 -35 -35 -36 -38
-16 -16 -16 -16 -16 -16 -16 -16 -16 -16 -15 -15 -15 -16 -16 -17 -19 -21 -25 -29 -32 -35 -35 -31 -30 -32 -35 -36 -36 -36 -35 -35 -35 -34 -35 -36 -36 -35 -35 -35 -34 -34 -33 -34 -35 -35 -35 -35 -34 -35 -35 -35
-16 -16 -16 -16 -16 -16 -16 -16 -16 -15 -15 -15 -15 -15 -15 -15 -16 -17 -19 -21 -26 -33 -35 -35 -32 -29 -30 -34 -35 -36 -36 -35 -35 -35 -34 -35 -35 -35 -35 -35 -34 -33 -32 -33 -33 -34 -34 -34 -34 -34 -34 -35
-16 -16 -16 -16 -15 -16 -16 -15 -15 -15 -15 -15 -15 -15 -14 -15 -14 -15 -16 -17 -20 -24 -29 -34 -35 -32 -30 -30 -32 -34 -35 -36 -35 -35 -35 -34 -35 -35 -34 -35 -35 -33 -32 -32 -32 -34 -33 -33 -33 -33 -34 -34
-16 -16 -16 -16 -16 -16 -15 -15 -15 -15 -15 -15 -15 -15 -14 -14 -15 -14 -14 -15 -17 -18 -21 -25 -30 -34 -32 -30 -29 -31 -33 -35 -35 -36 -35 -35 -34 -34 -34 -35 -35 -34 -33 -32 -32 -32 -32 -33 -33 -33 -33 -33
-16 -16 -16 -16 -16 -16 -15 -15 -15 -15 -15 -15 -15 -15 -15 -15 -15 -14 -14 -14 -15 -15 -17 -19 -24 -29 -33 -32 -29 -29 -30 -32 -34 -35 -35 -34 -35 -34 -34 -34 -34 -34 -34 -33 -32 -32 -32 -32 -32 -31 -32 -33
-16 -16 -16 -16 -16 -16 -16 -15 -15 -15 -15 -15 -15 -15 -15 -15 -15 -15 -15 -15 -14 -14 -15 -17 -20 -24 -29 -32 -32 -29 -28 -29 -32 -34 -35 -34 -34 -34 -34 -33 -33 -34 -34 -33 -32 -32 -32 -32 -32 -31 -31 -31
-15 -15 -15 -15 -16 -15 -15 -15 -15 -15 -14 -14 -14 -14 -15 -15 -15 -15 -15 -15 -15 -14 -14 -15 -17 -19 -23 -27 -31 -31 -29 -28 -28 -31 -34 -35 -35 -34 -34 -34 -33 -33 -33 -33 -32 -32 -32 -32 -32 -32 -31 -30
-15 -15 -15 -15 -15 -15 -15 -15 -15 -14 -14 -14 -14 -14 -14 -15 -15 -15 -15 -15 -15 -15 -14 -14 -15 -17 -19 -23 -28 -31 -30 -28 -27 -28 -30 -33 -35 -34 -33 -33 -32 -32 -32 -33 -32 -32 -32 -31 -32 -32 -32 -32
-14 -15 -14 -14 -15 -14 -15 -14 -15 -14 -14 -14 -14 -14 -14 -15 -14 -15 -15 -15 -16 -15 -15 -15 -14 -15 -16 -19 -24 -30 -31 -30 -27 -26 -28 -31 -33 -34 -33 -31 -30 -30 -30 -31 -31 -31 -31 -31 -31 -31 -31 -32
-14 -14 -14 -14 -14 -14 -14 -14 -14 -14 -14 -15 -14 -15 -15 -14 -15 -15 -15 -15 -16 -16 -16 -16 -15 -15 -15 -17 -21 -26 -30 -32 -29 -26 -26 -28 -30 -33 -31 -30 -29 -28 -28 -28 -29 -29 -29 -29 -29 -29 -30 -30
-14 -14 -14 -14 -14 -14 -14 -14 -14 -14 -14 -15 -14 -15 -15 -14 -15 -15 -15 -15 -15 -16 -16 -16 -16 -15 -15 -15 -18 -22 -26 -30 -30 -27 -26 -26 -28 -31 -31 -29 -28 -27 -27 -27 -27 -28 -28 -28 -29 -29 -29 -30
-14 -14 -14 -14 -14 -14 -14 -14 -14 -14 -14 -14 -14 -15 -15 -15 -15 -15 -15 -15 -15 -16 -16 -16 -16 -16 -16 -15 -16 -17 -20 -25 -29 -29 -27 -25 -26 -29 -30 -29 -28 -27 -26 -27 -27 -27 -28 -28 -28 -28 -29 -29
-14 -14 -14 -14 -14 -14 -14 -14 -14 -14 -14 -14 -14 -14 -14 -15 -15 -15 -15 -15 -15 -15 -16 -16 -16 -16 -16 -16 -16 -16 -17 -21 -26 -29 -29 -27 -25 -27 -29 -29 -28 -28 -26 -27 -27 -27 -27 -27 -28 -27 -29 -30
-13 -13 -13 -13 -13 -13 -13 -13 -13 -13 -14 -14 -14 -14 -14 -14 -15 -15 -15 -15 -15 -15 -15 -16 -16 -16 -16 -16 -16 -16 -16 -18 -22 -26 -29 -28 -26 -25 -27 -29 -29 -28 -27 -27 -27 -26 -26 -27 -27 -27 -27 -29
-13 -12 -13 -12 -12 -12 -12 -13 -13 -13 -13 -13 -14 -14 -14 -14 -15 -15 -15 -15 -15 -15 -15 -16 -16 -16 -16 -16 -16 -17 -16 -17 -18 -22 -26 -29 -27 -25 -26 -28 -29 -28 -27 -27 -27 -26 -26 -26 -26 -26 -27 -27
-12 -12 -12 -12 -12 -12 -12 -12 -12 -12 -13 -13 -13 -14 -14 -14 -14 -15 -15 -15 -15 -15 -15 -16 -16 -16 -16 -16 -16 -16 -17 -17 -17 -18 -22 -27 -28 -26 -25 -26 -28 -28 -27 -27 -26 -26 -26 -26 -26 -26 -26 -26
-11 -11 -11 -11 -11 -11 -11 -11 -12 -12 -12 -13 -13 -13 -14 -14 -14 -15 -15 -15 -15 -15 -15 -16 -16 -16 -16 -17 -17 -16 -17 -17 -18 -18 -20 -25 -28 -27 -25 -25 -26 -27 -27 -27 -26 -26 -26 -26 -26 -26 -26 -25
-10 -9 -9 -10 -10 -10 -11 -11 -11 -12 -12 -13 -13 -13 -13 -14 -14 -14 -15 -15 -15 -15 -15 -16 -16 -16 -17 -17 -17 -17 -17 -18 -19 -20 -21 -25 -28 -27 -25 -24 -25 -26 -27 -27 -26 -26 -26 -26 -26 -26 -26 -25
-9 -9 -9 -9 -9 -10 -10 -11 -11 -11 -12 -12 -13 -13 -14 -14 -14 -14 -15 -15 -15 -15 -15 -16 -16 -16 -17 -17 -17 -17 -18 -18 -20 -22 -23 -24 -26 -26 -25 -24 -25 -26 -26 -27 -26 -26 -25 -26 -26 -26 -26 -25
-10 -9 -9 -9 -10 -10 -10 -10 -11 -12 -12 -12 -12 -13 -13 -14 -14 -14 -14 -15 -15 -15 -15 -16 -16 -16 -17 -17 -18 -18 -18 -19 -21 -23 -24 -24 -25 -26 -25 -24 -25 -25 -26 -26 -26 -26 -26 -26 -26 -26 -25 -25
-10 -9 -9 -9 -10 -10 -10 -10 -11 -11 -11 -11 -12 -12 -13 -13 -13 -13 -14 -14 -15 -15 -15 -16 -16 -16 -17 -17 -18 -18 -19 -19 -20 -23 -26 -25 -24 -25 -25 -24 -24 -25 -25 -26 -26 -25 -25 -26 -26 -25 -25 -25
-10 -9 -8 -9 -10 -10 -10 -10 -10 -10 -10 -10 -10 -10 -11 -11 -11 -12 -12 -13 -13 -14 -15 -15 -16 -16 -16 -17 -17 -18 -18 -19 -20 -23 -27 -26 -24 -24 -25 -24 -24 -24 -25 -26 -25 -26 -26 -26 -26 -25 -25 -25
-10 -9 -8 -9 -9 -9 -9 -9 -9 -9 -9 -9 -10 -10 -11 -11 -11 -12 -12 -12 -12 -13 -13 -13 -14 -15 -16 -17 -17 -17 -18 -18 -19 -22 -25 -27 -25 -24 -24 -24 -24 -24 -24 -25 -25 -25 -26 -25 -25 -25 -25 -24
-12 -11 -10 -11 -11 -11 -11 -11 -11 -11 -11 -11 -11 -12 -12 -13 -13 -13 -14 -14 -13 -13 -13 -13 -13 -13 -14 -16 -17 -17 -18 -18 -19 -20 -24 -28 -26 -24 -24 -24 -24 -24 -24 -24 -24 -25 -26 -25 -25 -25 -24 -24
-13 -12 -12 -13 -14 -13 -13 -14 -13 -13 -13 -12 -12 -13 -13 -14 -14 -14 -14 -14 -14 -14 -15 -14 -14 -13 -14 -15 -17 -17 -18 -18 -19 -19 -23 -27 -27 -25 -24 -23 -24 -24 -24 -24 -24 -24 -23 -24 -25 -24 -23 -22
-12 -12 -12 -12 -13 -14 -14 -15 -15 -15 -14 -13 -13 -13 -13 -14 -14 -14 -14 -14 -14 -15 -15 -15 -15 -15 -15 -15 -16 -17 -18 -18 -19 -19 -22 -26 -28 -26 -24 -23 -23 -23 -24 -24 -23 -22 -20 -21 -22 -22 -22 -21
-10 -10 -10 -10 -11 -12 -12 -13 -13 -14 -14 -14 -14 -14 -14 -15 -15 -14 -14 -14 -14 -14 -15 -15 -15 -16 -16 -16 -16 -17 -18 -18 -19 -19 -21 -24 -26 -26 -24 -23 -23 -23 -23 -23 -23 -21 -20 -19 -18 -19 -21 -21
-8 -8 -9 -9 -10 -10 -11 -11 -12 -12 -12 -13 -13 -14 -14 -15 -15 -15 -15 -14 -14 -14 -15 -15 -15 -16 -16 -16 -16 -17 -17 -18 -19 -19 -20 -22 -24 -25 -25 -23 -23 -23 -23 -23 -23 -21 -20 -19 -18 -18 -19 -19
-9 -9 -8 -8 -9 -9 -10 -11 -12 -12 -12 -12 -12 -12 -13 -13 -14 -15 -15 -14 -14 -14 -15 -15 -15 -15 -16 -16 -16 -16 -17 -17 -18 -19 -20 -20 -22 -24 -25 -23 -22 -22 -23 -23 -22 -21 -21 -20 -19 -18 -18 -18
-11 -11 -10 -9 -9 -9 -10 -11 -11 -12 -11 -11 -11 -11 -11 -11 -13 -14 -15 -15 -15 -15 -15 -15 -15 -16 -16 -16 -16 -16 -17 -17 -17 -17 -19 -20 -21 -22 -24 -23 -21 -21 -22 -22 -22 -21 -20 -20 -19 -19 -18 -18